GFSSW_sfc_dewp_057.txt.gz
Dewpoint
56 57 57 57 57 58 58 58 59 59 60 61 61 61 61 60 58 51 36 43 46 57 54 34 28 27 29 29 28 21 12 12 14 15 18 20 18 22 24 24 28 30 30 31 42
56 56 56 56 57 57 58 58 58 59 59 60 60 60 60 60 50 41 52 57 56 54 33 28 25 24 24 26 26 20 12 15 17 18 19 20 19 21 21 24 25 29 31 35 43
56 56 56 56 57 57 57 58 58 58 59 60 60 60 59 57 39 35 56 56 56 50 38 33 30 23 23 25 27 19 14 17 21 25 24 20 20 21 20 20 23 26 30 33 39
56 56 56 56 56 57 57 58 58 58 58 59 60 59 59 48 22 41 56 56 55 44 35 30 23 20 23 22 26 21 21 16 26 27 23 21 22 21 21 25 27 25 31 33 36
57 57 56 56 56 57 57 58 58 58 58 59 60 59 48 33 34 45 55 52 42 36 32 28 21 22 20 23 24 19 22 22 28 27 26 27 24 22 23 28 30 30 32 32 34
56 57 57 57 56 57 57 57 57 58 58 58 60 58 44 26 44 43 43 41 37 33 30 27 24 25 22 22 20 25 26 25 26 27 27 26 25 26 25 29 30 31 31 32 33
56 55 57 57 56 57 57 57 57 58 58 58 60 53 40 29 44 40 38 36 36 35 31 32 30 26 25 25 27 26 21 22 22 26 26 26 22 23 25 29 29 29 30 31 31
56 56 55 56 57 57 56 57 57 57 58 58 59 48 29 42 44 36 36 34 34 34 34 34 32 30 28 27 25 22 23 23 23 28 26 22 20 22 26 28 28 28 29 29 30
56 56 56 55 56 57 57 57 57 57 58 58 48 44 28 46 44 44 35 32 34 32 33 32 31 28 25 23 22 23 20 22 22 26 25 22 21 25 27 27 27 27 28 29 29
57 56 56 56 56 56 57 57 57 56 54 52 47 30 33 34 40 42 38 35 32 30 27 28 28 27 24 23 18 20 22 22 22 24 24 23 22 24 26 27 26 26 27 28 28
58 57 56 56 56 56 54 49 38 37 46 25 30 19 35 38 40 38 37 34 33 28 25 28 24 23 25 22 22 21 22 22 24 25 23 23 23 23 24 26 26 26 26 27 28
58 58 58 58 57 57 53 46 42 43 36 41 43 40 38 38 35 38 35 31 30 27 29 27 24 26 27 26 23 23 23 22 24 25 24 24 23 24 24 24 25 25 26 26 27
56 58 58 58 57 56 51 48 50 47 35 34 43 41 39 35 33 36 34 32 30 29 28 27 26 30 27 26 25 24 23 23 23 25 24 23 23 23 24 25 25 25 25 26 26
55 56 58 57 54 53 51 54 51 46 22 22 32 39 36 36 34 37 35 32 30 28 29 28 30 29 28 26 26 24 26 25 25 25 23 26 19 22 24 25 25 26 25 25 26
55 55 56 57 53 50 50 53 52 44 27 28 33 39 37 31 31 35 36 32 29 29 29 25 29 28 28 27 28 26 28 27 27 25 24 24 22 25 25 24 25 26 27 26 26
53 54 55 56 55 52 53 54 50 34 25 27 37 35 33 33 32 33 33 31 31 29 30 26 30 30 28 29 29 29 26 27 28 25 22 22 23 19 23 24 25 26 26 28 27
52 53 54 56 52 56 55 48 35 29 33 28 34 34 34 32 30 31 30 28 26 25 24 27 27 28 29 27 29 27 25 22 20 21 21 25 23 20 23 25 26 25 27 29 28
52 52 51 53 56 56 51 42 29 34 32 35 35 35 32 33 31 30 30 29 29 28 24 21 17 27 29 26 27 27 26 23 14 18 18 25 24 25 28 27 28 29 30 30 27
51 47 48 51 54 54 46 34 34 34 34 34 35 34 33 34 32 29 29 29 29 28 20 23 23 28 29 28 26 26 25 26 23 14 20 20 23 26 29 29 29 29 29 27 27
46 43 44 50 54 51 43 37 37 37 35 36 33 35 33 33 31 29 28 29 29 30 28 25 22 28 29 30 30 26 28 25 25 15 15 20 23 22 26 27 28 28 28 28 27
46 41 43 50 53 45 36 38 38 39 36 34 34 35 33 33 32 29 30 30 30 30 29 28 27 26 28 27 26 27 26 26 26 25 18 17 20 27 27 27 27 28 28 29 27
43 35 43 52 39 40 37 38 41 39 39 38 39 35 35 34 32 30 30 30 32 31 29 30 30 25 26 29 29 29 26 26 23 21 25 24 21 29 29 29 28 28 28 29 27
37 37 44 47 33 34 35 36 39 39 39 37 38 39 38 36 35 34 33 33 33 31 30 31 30 22 25 28 28 26 28 27 28 28 23 22 22 26 27 27 28 28 31 28 27
34 29 35 39 38 36 32 32 34 43 42 41 38 38 37 36 36 35 35 34 35 32 38 35 34 27 25 25 27 26 27 28 27 26 24 25 25 27 28 26 26 27 28 28 27
37 31 32 31 30 31 37 35 31 32 41 42 40 40 37 35 35 34 35 36 34 37 36 36 33 33 31 28 28 27 27 28 27 26 25 25 26 27 28 27 27 28 27 28 27
32 29 33 31 32 32 29 32 34 37 34 35 36 34 38 37 38 36 36 36 35 36 34 39 33 33 31 32 31 29 28 28 28 28 27 27 27 29 32 31 29 28 28 28 27
38 37 33 29 29 28 31 30 27 32 37 39 38 37 36 37 39 41 42 42 41 37 34 36 35 34 31 32 33 30 31 30 29 29 28 27 29 31 30 30 31 31 29 28 28

GFSSW_sfc_dewp_060.txt.gz
Dewpoint
56 56 56 57 57 58 58 58 58 59 59 60 60 61 60 60 58 49 36 43 47 57 54 33 26 25 28 28 26 17 13 13 14 15 16 19 19 20 24 25 27 29 31 35 48
56 56 56 56 57 57 57 58 58 58 59 59 60 60 60 60 48 40 52 57 56 55 31 27 24 24 24 25 24 13 9 10 16 17 18 20 19 21 22 24 24 27 31 40 47
56 56 56 56 56 57 57 57 58 58 58 59 60 60 59 56 37 34 54 55 55 48 36 32 27 22 21 32 32 18 6 16 22 24 24 20 19 21 21 21 21 24 29 41 45
56 56 56 56 56 56 57 57 58 58 57 58 60 60 59 47 14 40 55 55 56 42 33 28 21 21 22 28 25 24 20 15 24 26 22 20 21 20 21 20 27 24 31 38 42
57 57 56 56 56 56 57 57 57 58 58 58 60 60 49 30 31 44 54 50 39 35 30 25 20 21 19 27 22 24 25 21 26 26 25 26 25 21 22 23 29 28 33 36 40
56 57 57 56 56 56 56 56 57 57 57 58 60 58 42 22 43 42 41 39 35 32 29 26 23 24 22 22 19 24 26 24 25 26 26 25 31 31 28 28 29 29 31 34 36
56 56 56 56 56 56 56 56 57 57 57 58 59 52 41 21 44 39 36 35 35 34 29 31 29 24 24 24 26 25 25 22 21 26 25 29 21 23 30 28 28 29 30 31 33
56 56 55 55 56 56 56 56 57 57 57 58 58 45 22 40 44 36 35 33 34 33 33 34 31 29 27 26 24 22 23 22 22 27 26 22 20 21 24 27 27 28 29 30 31
57 56 56 55 55 56 56 57 57 57 57 58 47 41 20 45 42 43 34 32 33 32 32 31 30 27 25 23 23 23 18 22 21 26 25 22 20 23 27 27 26 27 28 29 29
57 57 56 56 56 56 57 57 56 56 52 50 45 25 28 31 40 41 36 34 30 28 26 27 28 26 23 23 15 19 22 22 22 23 24 24 22 23 24 26 26 26 27 28 29
58 57 57 56 56 56 54 46 30 30 44 23 25 17 33 38 40 38 36 33 31 26 23 28 23 22 23 22 21 20 22 24 22 25 23 23 23 23 24 25 25 26 26 26 27
58 58 58 57 57 57 52 42 42 44 38 39 41 38 40 38 36 38 35 31 28 26 27 25 23 24 26 24 23 23 24 22 23 25 23 24 24 25 25 24 25 25 26 26 27
56 57 58 58 57 55 50 47 51 46 37 32 41 40 35 36 33 36 33 32 29 28 27 25 24 28 26 26 24 23 22 22 22 25 26 24 23 23 24 25 25 26 26 26 26
56 55 56 58 54 53 51 53 51 49 29 29 30 37 36 36 32 37 34 32 30 28 28 27 28 27 26 25 25 23 25 24 24 24 21 24 18 21 22 23 25 25 26 26 26
53 55 55 57 53 51 51 54 53 47 31 31 33 38 37 27 30 35 35 31 29 29 29 23 28 28 26 26 26 24 28 26 27 25 24 23 22 22 27 23 24 25 26 26 27
52 53 55 56 55 54 55 53 49 36 27 29 36 35 33 33 31 33 33 31 31 29 30 26 30 29 28 29 28 29 26 27 28 25 22 22 21 17 22 22 23 24 25 26 27
52 52 51 54 52 55 56 50 36 30 35 32 33 34 33 31 30 32 31 28 26 25 24 27 27 29 29 27 28 27 25 20 17 20 18 23 22 19 21 24 24 24 24 28 29
52 51 49 51 54 55 51 42 30 35 33 35 35 34 30 31 30 30 30 29 30 27 22 20 15 27 28 25 26 27 25 21 10 14 15 25 22 23 27 26 25 26 27 30 29
51 45 46 49 51 54 46 34 34 34 34 34 35 32 32 34 31 29 29 29 29 28 19 20 19 28 28 28 25 26 25 25 19 13 18 15 18 22 27 28 29 29 29 29 29
47 43 42 48 51 50 42 35 37 37 35 36 31 33 31 33 31 28 28 29 29 30 27 23 20 28 29 29 29 26 27 23 24 14 13 17 19 19 21 25 26 27 28 29 29
46 40 42 49 50 43 33 37 38 38 37 35 34 34 34 33 32 29 29 29 30 29 29 26 25 25 28 27 26 26 26 25 25 23 16 14 15 25 22 23 25 27 28 29 29
43 33 41 50 37 38 33 34 37 38 39 37 37 36 36 34 33 30 29 29 31 31 28 29 29 24 25 28 28 27 26 26 22 19 23 22 19 27 28 28 28 27 29 31 29
37 35 41 45 31 31 33 33 34 36 40 40 37 37 36 34 33 33 31 33 33 32 30 30 30 21 26 27 27 26 28 26 27 26 21 20 19 26 27 29 30 28 29 28 28
34 25 32 35 35 35 30 30 31 37 36 36 38 41 39 35 35 33 33 34 34 33 39 37 35 31 26 25 27 26 27 27 26 25 23 23 22 24 28 26 27 27 28 28 28
37 29 29 26 26 30 33 35 32 30 37 39 37 36 36 36 37 36 36 35 35 37 37 38 33 34 31 30 28 27 27 28 26 25 24 23 23 24 25 27 27 28 28 28 28
33 32 32 28 31 27 26 27 32 34 33 31 35 36 39 37 37 36 37 35 35 35 33 38 33 34 32 33 33 30 28 28 28 27 26 25 25 27 28 29 29 28 29 29 28
38 38 35 29 27 27 28 28 25 27 30 35 37 37 35 36 39 39 40 41 40 38 34 36 35 33 31 31 31 29 31 31 28 28 27 26 27 29 29 29 30 31 30 29 29

GFSSW_sfc_dewp_063.txt.gz
Dewpoint
56 57 57 57 57 57 57 57 58 58 59 60 60 61 60 60 58 50 35 42 46 57 55 33 27 28 30 31 28 24 20 19 18 18 19 21 20 22 26 27 29 30 32 36 50
56 56 57 57 57 57 57 57 57 57 58 59 59 60 60 59 46 39 51 57 57 55 32 27 25 27 25 28 27 16 17 15 18 18 19 21 21 20 23 26 27 28 31 41 49
56 56 56 56 56 57 57 57 58 57 58 58 59 60 60 56 35 34 56 57 57 48 36 32 25 25 24 26 26 23 9 13 20 22 23 21 21 22 22 23 24 25 28 42 49
56 56 56 56 56 57 57 57 58 58 57 58 59 60 59 46 12 39 56 56 56 41 33 27 23 23 23 21 27 17 21 17 27 28 24 21 22 21 22 21 28 25 30 43 49
57 56 56 55 55 56 57 57 57 57 57 58 59 60 45 26 30 44 54 51 38 34 30 24 21 23 19 24 24 20 21 22 27 27 25 25 23 21 22 22 30 28 34 41 48
56 57 57 56 56 56 56 56 57 57 57 58 59 58 41 18 43 41 40 37 35 32 30 26 23 24 23 24 21 25 26 25 26 26 26 25 25 27 24 28 28 29 30 36 43
57 56 56 56 56 56 56 56 56 57 57 57 58 50 32 18 44 39 36 35 35 33 30 32 27 25 26 26 28 26 23 23 23 26 26 27 22 22 26 29 27 28 28 32 37
57 56 56 55 56 56 56 57 56 56 57 57 59 44 19 39 43 35 35 33 34 33 33 34 31 30 28 28 25 24 24 20 22 27 26 25 20 21 25 26 26 27 28 30 31
57 56 56 56 55 56 56 57 57 57 57 57 45 39 16 45 41 42 34 32 33 32 32 30 30 28 27 24 23 23 15 21 21 26 26 24 22 23 28 27 25 26 27 29 30
57 57 56 56 56 56 57 57 55 55 51 48 43 21 25 29 40 39 35 33 30 28 28 28 28 25 24 22 14 18 21 21 20 23 25 24 23 24 24 26 26 26 26 27 28
58 58 57 57 56 57 54 41 28 24 41 19 23 18 31 38 39 38 35 32 29 26 25 28 23 22 22 23 20 20 19 18 21 24 25 24 24 24 25 25 25 25 26 26 27
57 58 58 58 57 57 52 40 41 43 37 40 40 37 38 38 36 37 34 30 28 25 27 25 22 24 25 24 23 23 22 22 23 25 25 24 24 25 26 25 26 25 25 26 26
56 56 58 58 57 55 51 46 49 45 37 35 39 39 34 36 32 35 33 31 28 27 26 23 23 27 25 25 23 23 22 21 21 24 25 24 24 24 25 26 26 26 26 26 26
53 56 56 58 55 53 51 52 51 40 36 35 31 36 36 35 30 37 34 32 30 26 27 26 27 26 26 24 24 22 24 24 24 24 19 24 16 23 22 22 25 26 26 26 27
52 53 55 57 53 51 51 53 52 48 29 35 32 38 37 26 30 35 35 32 29 28 27 22 28 27 26 25 25 23 27 25 25 24 24 24 22 20 24 22 23 23 26 26 28
51 52 53 55 55 54 54 53 48 37 27 35 34 35 32 32 32 33 32 32 31 29 30 25 31 29 27 28 27 29 27 27 27 24 21 21 19 10 20 21 21 23 24 26 27
52 51 49 51 52 55 54 50 37 31 35 32 32 33 31 30 30 32 31 28 25 24 24 27 27 29 29 27 28 27 24 18 16 21 19 23 20 12 21 22 22 21 21 25 27
49 50 47 49 52 55 51 43 29 35 33 35 35 33 29 30 29 30 30 29 30 25 21 19 16 27 29 25 26 26 23 19 10 12 12 24 21 20 25 26 26 24 25 28 29
49 44 45 47 48 53 47 34 30 34 35 34 35 31 31 33 29 29 29 29 30 27 19 19 19 27 28 27 25 26 25 22 17 13 18 15 17 19 25 24 26 28 29 29 29
43 42 41 46 49 48 41 36 36 37 35 35 32 32 29 32 29 28 28 28 28 30 24 21 19 27 28 28 28 24 27 23 23 13 12 14 16 14 19 22 24 25 27 29 30
42 35 40 47 47 41 32 33 37 39 37 35 34 33 32 32 31 28 28 28 29 29 29 25 24 24 27 26 25 25 25 25 24 22 15 13 14 20 20 21 21 24 27 29 30
38 29 40 48 36 37 31 33 35 36 39 38 39 36 34 34 33 30 29 28 31 31 28 29 27 22 24 28 28 27 24 25 21 19 22 21 17 23 24 28 29 28 28 29 30
32 34 40 43 28 30 31 32 33 33 36 39 38 37 36 34 34 33 32 32 32 31 30 30 29 19 24 26 27 26 26 26 26 26 21 20 18 26 26 25 27 28 29 29 29
35 25 31 36 36 30 28 28 29 34 33 33 34 39 38 36 37 35 34 34 33 32 38 35 32 28 25 23 27 26 26 26 25 24 22 22 21 21 25 25 26 27 28 28 29
36 28 28 24 28 29 32 32 29 27 33 34 34 33 32 30 31 31 33 36 36 36 37 36 33 34 31 31 28 28 27 27 25 25 23 22 22 23 24 25 25 26 28 28 28
34 32 33 27 28 23 26 26 28 30 33 33 30 29 32 34 33 30 36 35 35 36 35 38 34 35 33 34 34 32 29 28 27 26 25 25 24 26 26 26 26 26 27 27 28
38 38 35 28 27 25 23 22 22 25 27 31 34 32 33 35 38 39 39 40 39 37 34 35 35 33 30 33 33 30 33 33 31 28 27 25 27 29 29 28 29 30 30 30 30

GFSSW_sfc_dewp_069.txt.gz
Dewpoint
57 57 57 57 57 57 57 57 57 58 58 59 59 60 61 60 58 52 34 39 43 57 53 29 28 29 28 30 28 26 20 18 18 19 14 20 21 22 24 22 27 31 29 40 44
57 57 57 56 57 57 57 57 57 57 58 58 59 59 60 60 47 37 48 55 57 57 31 25 22 26 22 27 27 24 21 17 18 16 16 20 19 20 21 21 23 27 31 43 52
56 56 56 55 56 56 57 57 57 57 57 58 58 60 60 56 36 32 53 56 57 48 32 26 22 22 20 23 25 23 22 17 14 17 20 19 20 20 20 19 21 21 26 37 51
56 56 55 55 55 55 56 56 57 57 57 57 59 59 59 47 17 38 55 56 56 38 31 25 21 19 17 17 20 16 16 15 23 26 23 21 21 20 21 20 23 22 24 32 46
56 56 55 55 55 56 56 56 57 57 57 57 59 59 49 29 26 40 54 44 37 34 27 23 18 18 16 13 18 15 13 16 23 26 24 24 22 21 21 22 23 25 26 29 37
57 56 56 55 56 56 56 56 57 57 57 57 59 58 35 18 43 40 37 36 32 30 26 24 18 19 16 17 17 20 20 18 22 23 24 23 19 24 19 23 21 23 25 26 30
56 56 56 55 55 55 56 56 57 57 57 57 58 47 29 25 43 39 35 35 35 31 27 29 26 25 23 23 26 24 20 19 19 21 21 25 20 18 17 22 23 22 23 25 26
57 56 56 55 55 55 56 56 57 57 57 57 58 42 22 39 42 35 34 33 33 33 33 33 30 30 28 28 24 20 20 14 19 24 25 26 13 16 21 19 22 21 21 24 25
57 56 56 56 56 56 57 57 57 56 56 56 43 35 18 46 38 39 34 31 33 32 31 30 31 29 28 22 19 22 7 14 16 24 23 25 20 19 24 24 23 21 20 21 24
57 57 57 56 56 56 57 56 55 54 50 45 38 26 26 26 41 39 34 33 31 32 28 28 26 22 21 17 10 11 15 13 16 23 25 23 23 21 20 21 23 22 20 22 25
58 58 57 57 57 57 56 44 35 35 37 23 24 20 26 38 41 38 35 30 30 29 25 28 19 17 16 15 14 16 14 13 12 22 23 19 17 16 17 18 18 19 20 21 21
56 57 58 58 57 57 54 44 43 45 37 36 35 33 33 38 33 38 34 30 30 25 27 26 21 19 21 23 22 20 17 14 15 23 24 19 17 18 19 20 20 19 19 18 19
54 56 58 58 57 56 51 47 49 46 42 42 37 31 32 34 25 32 33 30 27 24 26 20 17 21 24 23 21 18 17 14 14 22 23 24 20 17 17 20 22 21 22 21 21
51 53 55 57 55 54 52 51 51 45 36 36 38 38 34 32 25 37 34 30 28 21 23 21 19 23 24 19 20 14 15 20 18 20 10 21 7 10 9 10 16 21 21 20 23
52 51 51 57 54 51 52 53 51 49 34 36 36 39 36 28 29 34 35 32 23 24 25 18 25 25 22 19 21 19 25 22 23 23 22 18 18 10 10 11 12 15 23 23 27
50 52 51 55 55 55 55 53 50 38 31 33 36 35 31 30 31 34 33 33 31 26 28 24 30 26 23 27 25 27 26 26 26 21 16 12 10 7 9 6 8 14 17 21 23
47 50 48 48 52 56 55 51 37 32 33 32 31 34 32 30 28 30 30 28 21 19 18 22 25 28 29 26 29 26 22 14 16 22 16 16 16 11 14 13 17 15 19 19 26
44 47 48 46 51 56 53 43 32 35 30 34 34 33 31 31 28 29 29 25 26 21 18 16 16 26 29 24 22 27 21 18 21 16 15 24 18 10 16 19 23 23 24 27 28
45 45 46 47 49 54 47 34 35 33 33 34 33 30 29 30 29 28 26 25 26 24 19 14 15 25 27 25 21 24 23 22 23 30 21 14 14 16 24 22 20 19 19 23 26
40 41 42 47 48 51 42 35 35 35 36 35 31 32 28 29 27 27 26 27 26 28 27 21 19 24 28 28 27 24 23 22 21 25 20 14 16 12 19 16 17 21 22 26 30
42 34 39 47 49 45 35 35 33 36 36 34 34 36 35 31 29 27 26 27 27 27 30 25 23 26 27 25 20 23 22 23 19 21 21 18 14 12 16 22 21 26 30 29 32
39 29 44 46 38 36 34 32 34 31 35 36 35 34 31 33 34 32 29 29 29 30 28 29 26 26 22 23 25 23 20 20 21 21 20 21 20 21 21 28 28 27 29 31 32
35 32 46 46 28 30 30 29 30 30 32 33 33 34 33 31 31 31 31 34 32 31 35 34 29 30 27 27 27 25 24 24 22 26 31 26 19 19 23 24 25 28 30 30 32
36 27 36 41 35 26 25 25 27 31 30 32 31 32 32 31 32 31 34 37 39 35 39 38 36 33 26 24 27 26 25 24 25 26 25 25 23 23 22 22 24 27 28 27 29
38 28 29 31 31 31 26 21 22 23 30 30 30 30 29 28 32 34 36 36 34 37 33 32 33 34 34 32 31 31 31 28 25 25 24 25 24 24 25 25 24 25 25 26 26
34 33 32 29 28 30 30 24 25 22 25 25 26 24 28 27 25 24 24 23 27 37 32 35 32 32 33 32 32 32 34 33 32 31 28 26 25 27 27 27 26 26 27 27 28
40 39 36 27 25 28 29 27 25 26 25 25 25 25 25 26 28 32 36 36 36 35 35 34 33 32 29 31 32 29 33 32 33 31 29 26 27 29 29 30 32 33 33 32 31

GFSSW_sfc_dewp_072.txt.gz
Dewpoint
57 57 57 57 57 57 57 57 57 57 58 58 58 60 60 60 58 53 39 44 47 56 52 34 32 34 36 37 37 33 27 23 22 21 21 22 22 23 24 24 27 32 31 41 46
57 57 57 57 57 57 57 57 57 57 57 58 58 59 60 60 51 40 51 56 55 55 37 29 26 30 27 34 33 29 28 23 19 18 19 21 20 22 21 22 23 29 35 44 51
57 56 56 56 56 56 56 57 57 57 57 58 59 59 59 57 43 38 55 55 56 50 35 30 25 26 27 30 29 28 27 19 17 24 20 22 21 21 20 21 21 23 31 44 51
56 56 55 55 55 55 56 56 57 57 57 57 59 59 59 51 31 41 55 55 56 42 34 29 25 28 28 25 25 23 22 20 30 30 26 24 22 20 21 21 24 25 30 43 50
56 56 55 54 55 55 56 56 56 57 57 57 58 59 52 38 37 40 54 51 39 38 31 27 23 24 24 19 23 21 18 18 26 28 26 26 24 23 22 22 24 25 29 36 46
57 56 56 55 55 55 56 56 56 57 57 57 58 59 44 28 45 39 39 40 35 34 30 29 25 24 24 20 23 24 21 20 24 25 25 26 22 24 22 24 22 25 26 28 35
57 56 56 55 55 55 55 56 56 57 57 57 58 50 35 32 43 40 36 39 39 35 33 33 29 31 27 27 28 27 23 20 20 23 25 27 23 20 21 23 23 22 25 26 27
57 56 56 56 55 55 56 57 57 58 57 57 58 47 31 43 42 37 36 37 37 36 36 38 34 35 34 30 26 22 21 18 21 24 27 28 16 18 21 18 20 22 21 24 26
57 56 56 56 56 56 57 58 57 57 56 56 48 41 30 47 40 39 36 35 36 35 35 29 38 33 33 25 21 22 13 14 22 25 26 26 24 24 25 23 22 22 21 21 24
57 57 56 56 56 57 57 58 55 55 52 45 36 33 31 31 43 40 36 37 36 36 34 35 31 29 26 20 15 16 17 14 15 24 26 25 25 25 23 23 24 24 23 23 24
57 57 57 57 57 57 56 50 40 42 39 30 28 25 29 40 44 40 37 33 34 33 26 31 23 20 19 19 17 18 18 15 15 25 24 23 22 19 18 17 18 19 20 22 22
56 57 58 58 57 57 56 47 47 47 40 32 34 34 34 39 36 38 37 30 32 28 29 28 23 22 21 26 23 22 19 17 16 25 24 22 20 19 18 18 18 20 20 20 21
53 54 56 58 58 56 52 48 49 48 43 42 38 31 34 38 30 36 35 33 30 28 28 26 24 24 25 25 24 20 18 16 16 23 24 23 22 22 23 21 19 21 21 21 20
53 52 52 57 55 54 52 51 51 50 38 38 39 38 35 33 29 39 36 32 29 24 27 26 26 23 25 22 23 19 21 19 21 20 16 25 16 15 12 11 19 23 24 23 23
49 52 52 55 55 52 52 53 52 51 31 37 37 41 38 28 33 36 36 33 27 24 23 23 25 25 25 23 22 22 27 23 24 22 25 22 20 16 13 11 11 14 18 21 23
47 48 51 54 55 55 55 53 50 38 30 34 36 35 32 33 34 35 34 35 33 27 28 28 30 28 26 29 27 28 26 26 25 22 17 14 17 10 11 12 11 13 18 23 28
45 47 49 48 51 56 56 51 37 32 35 32 34 35 33 30 31 32 31 29 24 23 24 26 26 29 30 27 29 27 22 17 20 21 19 16 13 10 13 12 15 15 18 21 37
46 44 48 46 51 54 53 42 30 36 32 35 34 34 32 31 30 29 30 27 27 22 19 17 17 28 29 26 26 27 22 21 14 18 17 21 16 17 18 19 19 21 23 25 32
46 44 47 49 49 54 47 32 35 35 34 33 32 30 30 31 30 28 28 27 27 25 19 17 18 26 28 26 24 26 24 23 21 19 20 19 17 16 21 17 19 20 21 21 25
42 42 43 49 50 51 42 34 36 37 36 35 31 31 28 29 28 28 27 28 28 29 25 24 21 26 29 28 27 25 25 22 23 15 14 16 16 14 16 15 18 22 27 30 31
43 34 44 49 50 45 35 35 36 37 37 35 33 35 35 29 28 28 27 28 28 29 30 27 27 27 27 26 23 25 23 24 22 22 19 14 13 15 22 26 28 29 29 31 32
41 30 45 47 39 37 34 34 35 33 37 35 36 35 34 35 33 32 28 29 29 31 28 31 29 25 24 24 27 25 21 22 21 19 21 20 17 22 23 26 26 27 30 31 31
36 33 45 47 30 31 33 32 32 30 31 34 34 35 34 35 35 36 36 39 36 36 35 34 30 23 26 26 28 25 24 25 23 23 22 20 18 19 25 24 27 25 28 30 31
37 28 38 40 36 30 28 28 27 33 32 31 31 33 33 31 32 30 33 39 40 35 38 39 36 29 24 27 31 30 31 27 26 26 23 22 21 22 23 23 23 24 28 29 29
37 29 31 29 28 32 32 26 24 25 31 31 30 31 30 30 29 30 34 37 38 38 35 36 33 34 33 34 33 33 35 35 36 32 24 24 23 24 24 25 27 27 27 27 27
34 33 33 30 29 27 30 26 25 23 28 27 27 28 29 28 28 29 32 34 31 35 32 37 31 32 27 31 30 29 31 32 32 33 34 32 28 28 28 29 28 28 28 31 32
39 39 36 29 28 28 27 27 25 25 26 25 26 27 26 29 31 34 36 36 36 34 33 34 33 31 23 29 28 27 29 29 30 30 31 29 30 31 31 31 31 31 32 32 34

GFSSW_sfc_dewp_075.txt.gz
Dewpoint
58 58 58 57 57 57 57 57 57 57 57 58 58 59 60 60 59 54 43 45 49 55 52 32 32 31 31 33 32 28 23 19 20 19 19 22 21 22 24 25 26 31 37 40 50
58 57 57 57 57 57 57 56 57 57 57 58 58 59 59 59 54 45 51 57 57 55 37 28 27 28 25 31 29 25 21 19 18 18 20 20 20 21 20 23 25 30 36 47 53
57 57 56 56 56 56 56 56 57 57 57 58 58 59 59 57 46 40 56 57 56 51 37 33 27 25 26 28 27 25 24 20 21 24 22 21 20 21 20 20 21 26 35 50 52
57 56 55 55 55 55 56 56 57 57 56 57 58 59 59 52 24 42 55 56 55 40 35 30 24 23 22 21 25 20 22 18 28 29 25 22 23 21 20 20 24 24 36 49 51
57 57 55 55 55 55 56 56 56 57 57 57 58 59 52 39 38 40 53 51 39 37 31 27 23 23 21 21 20 19 18 18 27 27 25 26 23 22 22 22 23 31 37 49 50
57 56 56 56 55 55 55 56 56 57 57 57 58 58 43 28 44 39 38 39 36 34 29 28 24 24 21 19 18 24 22 19 24 25 25 24 22 23 20 23 23 27 34 44 49
57 56 56 55 55 55 55 56 57 57 57 57 57 52 34 28 43 37 37 38 38 36 30 32 29 25 27 23 27 25 19 20 20 23 24 26 12 19 21 23 22 23 25 33 41
57 56 55 55 55 55 56 57 58 58 58 57 57 47 29 42 42 37 36 36 35 34 36 35 32 32 30 28 24 21 19 15 20 23 27 18 7 15 20 20 21 21 23 25 26
56 56 56 56 56 56 57 58 57 57 56 56 47 38 28 47 40 38 35 34 35 34 32 29 33 30 28 22 20 21 10 15 18 23 26 24 16 24 24 21 19 20 21 22 23
57 56 56 56 56 56 57 58 56 54 52 48 38 24 30 32 43 39 34 35 33 33 30 31 29 27 25 19 10 15 17 15 12 23 25 24 23 24 25 24 23 22 23 24 23
58 57 57 57 57 57 56 51 37 37 39 26 26 23 34 40 43 40 36 33 33 30 24 29 23 20 21 20 17 16 16 17 16 24 23 22 22 23 23 20 17 19 23 24 23
55 56 58 58 57 57 55 46 45 44 40 33 31 32 36 39 36 38 35 29 30 24 28 26 20 22 22 22 20 18 17 17 18 25 21 20 19 20 21 19 18 17 17 19 20
53 53 54 57 58 55 52 48 49 47 41 41 35 32 32 37 32 37 33 31 29 27 27 25 23 25 24 24 21 20 18 17 16 22 22 21 18 19 19 24 22 21 20 21 21
52 53 53 55 54 54 51 51 51 48 37 38 39 36 35 31 25 39 35 30 28 27 27 26 28 23 24 22 21 19 24 20 19 18 14 22 14 19 16 14 14 19 21 22 23
48 49 51 54 54 52 52 53 51 48 23 36 38 40 37 23 31 36 36 32 26 25 25 24 23 23 23 22 22 20 25 23 23 21 23 22 18 18 18 12 12 11 14 17 22
45 46 50 53 55 55 55 54 48 37 26 34 36 34 31 32 34 35 33 33 31 27 26 25 29 27 24 29 25 27 25 26 25 21 15 17 14 13 11 11 11 13 19 24 25
47 46 48 50 51 55 56 50 37 31 36 33 34 33 32 30 31 32 30 29 23 22 23 26 25 29 29 25 28 25 18 15 16 18 13 17 14 12 13 13 12 13 15 20 34
45 46 46 47 52 55 53 41 30 36 34 35 35 34 31 30 30 30 29 27 27 23 23 21 18 26 27 24 24 25 19 17 10 18 17 19 15 14 18 16 16 17 18 22 23
45 42 44 48 49 54 45 32 34 37 37 34 33 31 31 30 29 27 28 27 27 25 16 18 17 27 28 26 23 25 22 22 20 15 18 17 18 17 20 16 17 21 26 28 31
41 40 40 48 49 50 41 34 37 39 38 35 31 31 29 30 28 27 27 28 28 27 25 22 20 28 28 27 27 24 25 21 23 11 11 15 15 15 17 17 28 28 27 28 31
41 32 41 48 48 44 35 36 38 39 39 38 36 35 34 29 28 28 28 28 29 29 27 25 25 25 26 25 23 25 23 23 22 23 15 13 12 16 16 24 25 27 28 31 31
39 28 43 45 38 37 34 35 36 37 39 39 36 36 37 35 30 28 29 32 37 31 28 31 28 24 23 25 26 24 22 23 21 18 20 21 15 24 25 24 24 25 29 35 36
34 33 43 46 30 31 32 33 34 31 36 36 35 35 36 37 35 36 37 39 37 35 33 33 28 18 23 25 27 24 25 24 24 25 21 18 17 21 24 24 24 24 26 27 29
35 26 35 39 35 30 29 30 32 34 32 32 34 35 34 33 37 32 37 39 38 36 41 39 34 26 21 28 32 30 33 35 30 23 22 22 21 23 25 25 25 27 28 28 28
37 28 31 28 29 31 32 29 28 27 31 31 30 32 32 31 31 31 36 37 37 38 35 38 32 33 32 33 33 36 34 34 33 33 31 26 26 27 27 27 27 28 29 29 29
33 31 32 28 27 28 29 29 26 27 30 28 29 30 31 30 30 29 34 35 34 35 35 36 27 32 29 32 31 28 29 31 33 32 31 30 31 33 33 34 32 31 31 33 33
35 38 34 28 28 26 23 27 26 26 27 28 28 28 27 30 33 35 36 35 34 33 34 34 32 28 15 27 27 20 26 29 29 31 30 29 29 31 31 33 35 36 36 35 35

GFSSW_sfc_dewp_078.txt.gz
Dewpoint
56 58 58 58 58 58 57 57 57 57 57 57 57 59 59 59 59 53 42 43 46 56 54 34 32 31 31 31 30 27 23 19 18 18 19 21 21 23 25 26 29 32 40 41 52
57 58 57 57 57 57 57 56 56 56 57 57 57 58 59 59 51 45 52 57 56 55 35 27 27 28 26 30 29 23 22 19 19 18 19 21 21 21 22 24 27 31 41 49 55
58 57 57 57 57 56 56 56 56 56 56 57 58 59 59 57 43 39 55 55 55 50 36 32 27 27 24 28 29 26 19 21 20 22 21 20 19 22 19 20 23 28 39 50 55
57 57 56 56 55 56 55 56 56 56 56 57 58 58 59 52 15 42 53 55 55 40 35 28 23 21 22 22 26 19 22 19 24 27 22 21 24 20 20 19 22 25 43 51 54
57 57 56 55 55 55 55 56 56 57 57 57 58 58 52 35 36 40 52 50 39 37 29 24 21 21 16 20 19 20 18 22 27 25 24 25 22 21 21 21 23 27 46 50 53
57 56 56 56 55 55 55 55 56 57 57 57 58 58 39 23 43 38 37 38 36 34 29 26 21 21 19 18 17 20 19 19 24 24 24 21 20 22 18 22 22 31 42 48 51
57 56 56 56 55 55 55 56 57 57 58 57 57 50 29 26 42 37 37 37 36 35 29 31 28 22 23 22 25 23 17 19 21 23 23 24 9 19 19 20 22 25 32 42 49
57 56 56 56 56 55 56 57 57 58 58 57 57 45 25 41 42 37 36 35 34 34 34 33 32 31 26 26 23 18 18 8 15 24 25 15 6 11 22 19 19 21 23 27 35
56 56 56 56 56 56 57 57 57 57 55 56 46 34 27 46 37 37 35 33 34 33 31 30 32 28 26 20 19 20 6 15 14 23 25 20 13 16 24 22 20 19 20 21 24
56 56 56 56 56 56 57 58 56 53 51 48 37 22 31 29 42 38 34 35 32 31 29 29 28 26 23 12 5 15 16 15 11 21 24 23 22 23 23 24 23 22 22 21 22
57 57 56 56 57 57 55 46 34 33 39 21 23 24 34 40 42 39 36 32 32 27 21 28 22 20 20 17 12 16 16 14 16 23 22 22 22 22 22 22 21 20 21 22 24
55 57 58 58 58 58 54 44 40 39 32 36 30 31 37 39 36 37 34 28 26 21 26 24 19 21 22 21 19 17 16 15 17 24 21 19 19 21 21 20 19 19 18 18 19
53 53 54 57 58 55 52 47 49 47 38 39 33 30 30 37 31 35 32 30 27 25 26 19 17 23 21 22 20 19 17 16 15 20 20 24 15 15 15 22 21 20 21 20 19
50 51 52 56 53 53 51 51 51 47 36 37 39 34 34 33 26 38 33 31 28 24 27 25 26 23 23 21 20 17 21 19 19 16 11 20 9 18 16 15 16 15 13 16 21
48 48 50 54 53 51 52 53 50 45 20 34 38 39 35 22 31 36 36 31 26 26 27 23 24 24 22 21 21 19 24 20 21 21 22 21 15 15 18 14 12 12 13 24 25
48 48 49 54 55 54 54 52 48 33 23 35 36 34 30 31 34 35 32 32 29 24 25 24 28 25 23 28 23 26 24 24 24 17 12 16 10 8 9 9 10 13 19 19 24
44 47 47 51 51 55 55 50 37 29 34 33 34 32 29 29 32 31 30 28 24 22 22 26 24 28 27 25 26 23 15 12 13 16 11 16 15 12 14 13 12 16 18 21 24
44 46 44 48 53 55 52 43 30 35 35 35 35 33 29 29 29 30 29 27 28 20 23 21 20 25 27 24 23 22 15 15 7 14 13 19 15 12 19 17 18 23 23 28 31
44 42 43 48 51 54 45 32 34 36 38 34 33 31 31 30 29 28 28 27 26 24 14 20 17 27 28 26 24 23 20 18 18 14 17 16 16 17 19 20 27 27 27 28 30
41 40 40 48 50 51 41 34 37 41 41 35 31 31 30 29 27 26 27 28 26 27 24 19 19 28 27 26 27 22 24 21 22 9 8 13 14 12 14 18 25 25 27 29 30
40 30 39 47 50 44 36 36 38 41 43 38 37 33 30 29 28 27 28 29 30 28 26 24 22 24 26 24 23 24 22 22 22 20 12 11 12 17 16 23 25 26 28 29 29
37 25 41 45 40 39 35 37 39 39 42 41 39 38 36 30 29 28 28 33 37 31 25 27 26 23 23 25 25 25 23 23 20 17 20 20 16 20 24 25 25 26 26 27 28
33 32 41 46 31 32 32 33 34 37 39 39 38 39 39 37 34 36 35 39 35 35 31 30 29 23 24 25 27 24 26 24 24 24 19 17 17 24 25 26 25 25 27 28 29
35 26 33 39 36 30 31 31 32 35 34 35 36 38 37 36 38 36 37 38 38 38 41 38 31 25 22 26 30 30 32 34 27 21 21 20 19 20 26 29 29 28 29 30 30
36 28 29 25 31 32 31 30 30 29 33 32 31 34 33 32 35 33 37 37 37 39 36 35 28 30 31 33 33 34 33 33 31 32 27 28 31 30 32 31 30 31 32 33 34
32 30 31 28 28 30 31 29 28 29 30 28 29 31 32 31 32 31 36 35 34 35 35 35 29 31 28 31 32 30 32 33 32 31 30 30 29 29 30 33 34 35 35 34 34
34 37 33 28 27 26 27 28 27 27 27 30 30 28 29 31 32 35 35 35 35 34 33 30 31 27 20 26 27 21 26 29 28 31 27 26 28 32 33 33 33 34 34 33 34

GFSSW_sfc_dewp_084.txt.gz
Dewpoint
56 57 57 58 59 59 58 58 57 57 56 58 57 58 58 59 58 53 42 39 43 53 49 31 30 30 32 30 28 28 22 21 21 18 21 21 25 22 26 27 34 32 39 44 58
56 57 56 58 58 58 58 57 57 56 56 57 57 57 58 58 51 44 50 55 54 53 31 28 27 28 27 28 27 25 21 20 18 18 19 20 22 22 33 32 35 37 42 51 58
57 57 56 58 58 58 57 57 56 56 56 56 57 57 57 56 42 34 54 54 53 49 31 28 28 26 26 26 27 24 18 20 18 19 21 21 20 22 23 28 24 26 34 53 56
57 57 57 58 57 57 56 56 56 55 56 56 57 58 58 52 13 40 53 53 52 38 31 25 24 22 25 22 26 26 22 18 23 24 21 20 21 21 21 25 22 25 37 52 56
57 57 57 57 57 56 56 56 56 56 56 56 57 58 53 39 34 40 51 49 36 34 29 24 22 21 21 21 22 18 17 21 25 23 21 23 27 20 20 21 22 27 45 52 56
56 56 57 57 56 55 56 55 55 56 56 56 57 57 43 22 41 37 36 36 34 31 28 23 22 21 19 19 20 20 17 21 23 21 22 17 22 28 20 21 21 29 38 49 54
56 56 57 56 55 55 55 55 56 57 58 57 57 51 34 25 41 37 35 35 34 31 27 29 23 20 21 20 23 19 16 16 19 22 20 22 10 18 26 18 20 21 26 42 50
56 56 56 56 56 55 55 56 57 57 58 57 56 46 20 40 41 34 35 34 34 34 29 30 30 29 24 24 21 16 11 8 10 22 22 12 3 6 20 27 17 17 22 26 33
56 56 56 56 56 56 56 57 57 57 56 56 47 32 20 46 36 35 34 32 33 31 31 31 29 27 22 16 13 16 4 9 8 22 24 16 7 13 23 22 21 22 19 20 22
56 56 56 56 56 56 56 57 56 53 48 45 35 26 31 31 40 35 34 34 30 31 28 28 26 23 19 11 7 11 14 14 6 18 27 25 20 20 21 22 21 21 21 21 22
56 56 56 56 56 57 53 45 33 32 37 24 24 25 31 40 40 35 35 32 28 23 22 27 18 16 19 12 5 14 11 11 15 23 23 20 20 21 22 22 21 21 21 21 21
56 56 56 57 57 58 53 37 31 31 24 33 29 34 38 39 33 34 33 26 24 20 25 23 17 18 20 16 16 16 19 16 16 23 25 21 19 20 20 20 20 19 20 19 19
53 55 57 57 58 55 52 47 48 46 27 35 30 31 33 34 28 32 30 27 21 24 21 17 15 22 19 19 14 20 14 14 11 17 17 13 10 9 13 18 17 17 18 18 19
51 52 53 55 54 52 50 49 51 46 29 31 29 29 35 33 28 37 32 29 26 21 20 17 21 20 20 17 16 14 18 16 17 15 11 20 1 12 13 16 13 18 22 25 25
49 50 51 53 52 50 51 52 50 38 17 29 36 36 35 24 30 34 35 28 25 25 21 17 23 20 19 18 19 17 21 19 18 17 20 18 11 10 11 8 12 16 20 24 29
47 48 49 54 54 53 54 51 46 32 18 35 36 31 27 30 33 33 32 30 28 25 24 21 27 24 20 25 22 25 19 19 20 14 9 12 7 3 5 12 18 17 26 30 31
46 46 47 48 51 55 54 49 35 26 29 33 34 30 27 29 31 30 29 26 23 20 22 25 24 28 27 24 25 18 13 11 10 12 8 17 14 7 10 13 15 23 28 29 30
44 45 46 46 49 55 52 42 29 29 28 35 33 28 24 28 29 30 28 25 26 20 22 18 17 26 27 23 23 17 14 14 5 8 8 19 13 9 18 24 26 28 30 30 29
43 45 45 47 51 52 46 32 29 33 34 33 31 26 26 27 28 29 27 23 25 23 15 18 16 26 26 25 23 20 14 15 17 11 14 12 14 15 23 26 27 28 28 28 29
40 42 42 48 52 49 41 34 36 39 38 34 31 30 26 27 26 27 27 26 25 25 21 21 15 26 27 25 25 23 21 17 18 6 5 8 11 7 23 25 27 27 27 29 30
40 34 41 47 49 42 33 34 37 42 42 35 34 31 30 27 26 26 26 26 27 27 23 21 21 24 26 23 22 21 19 19 17 17 11 9 9 15 23 26 26 27 28 28 29
37 28 40 47 40 37 33 37 40 42 44 40 39 37 31 29 28 26 25 27 35 28 23 24 24 24 23 25 26 23 20 19 16 14 17 17 13 21 26 27 27 27 27 29 31
33 32 39 45 33 33 36 38 40 40 40 40 39 39 38 33 29 30 30 37 35 29 25 26 24 19 23 26 27 23 23 22 21 23 19 16 15 25 25 26 27 28 30 33 35
33 25 32 39 36 34 33 34 35 40 39 40 38 39 37 36 37 35 36 37 38 38 40 34 28 21 15 20 25 26 30 25 20 20 17 19 20 23 27 30 30 33 34 34 34
33 28 29 28 32 32 32 32 32 32 38 40 38 37 36 33 34 34 36 36 36 37 37 33 29 32 32 32 31 30 30 29 22 19 17 17 19 23 25 31 33 35 34 33 34
32 29 31 28 28 30 31 30 31 31 32 34 33 36 37 34 34 33 35 35 36 37 36 35 32 32 30 34 32 30 31 31 31 31 30 31 30 32 32 34 33 33 31 30 32
33 35 31 28 28 29 28 29 29 30 31 31 33 34 35 34 36 36 37 38 36 36 36 35 32 31 27 29 31 28 29 30 30 31 30 28 28 32 32 33 32 33 30 29 31

GFSSW_sfc_dewp_087.txt.gz
Dewpoint
56 57 57 56 58 59 59 59 59 58 58 59 57 58 58 58 58 53 40 40 45 54 49 31 33 32 33 32 33 31 25 24 24 19 20 24 25 26 27 27 30 40 38 44 58
57 57 57 56 58 59 58 58 58 57 57 57 57 57 58 58 51 45 50 55 54 54 31 29 29 30 29 31 30 28 24 23 23 21 20 23 23 23 25 27 29 32 40 54 60
57 57 57 57 58 58 58 58 58 57 56 57 56 57 57 56 43 38 57 56 53 48 32 29 29 29 29 30 29 28 22 21 19 20 22 22 22 25 23 25 25 27 33 55 58
56 57 57 56 58 58 57 57 56 56 55 56 56 57 58 51 15 40 55 55 52 37 29 28 26 26 27 24 28 21 23 20 26 25 22 22 22 22 24 25 24 26 38 55 58
56 57 57 58 58 57 57 56 56 56 56 56 57 58 52 42 39 40 53 50 36 33 27 25 24 25 22 24 23 21 22 22 25 23 22 23 22 22 21 22 23 29 46 54 58
55 56 56 57 57 57 56 56 56 56 56 56 57 57 44 27 40 38 37 36 34 30 28 24 23 23 22 23 20 21 20 23 23 22 23 19 18 20 18 21 23 29 36 48 56
55 56 56 57 56 56 56 55 56 57 57 57 57 50 36 29 40 36 35 35 34 30 28 29 23 22 23 22 23 19 17 18 20 23 22 23 13 17 18 18 19 22 26 38 49
56 56 56 56 56 56 55 56 56 57 57 57 56 44 27 40 41 35 35 34 35 33 30 32 29 27 25 25 20 15 14 14 14 22 24 15 11 9 22 21 19 17 20 24 29
55 55 56 56 56 56 56 57 57 57 56 55 45 30 20 45 37 35 34 32 32 32 32 29 30 26 23 17 15 15 11 12 10 23 24 17 12 16 24 23 22 22 21 21 21
55 56 56 56 56 56 56 57 56 51 49 46 34 28 31 32 38 35 35 33 31 32 29 27 25 23 18 13 12 12 6 12 7 18 23 22 19 20 21 22 22 22 22 22 22
56 56 56 56 56 56 56 48 35 32 36 25 27 26 30 40 39 34 35 31 27 23 23 28 18 19 17 12 8 13 7 7 15 24 23 21 20 20 22 22 22 21 20 20 21
56 56 56 56 57 58 47 35 31 31 25 33 28 34 38 39 32 34 33 25 24 21 25 22 16 18 20 14 14 14 13 14 18 24 22 22 19 20 20 21 22 21 20 20 20
55 56 56 57 58 55 49 46 48 45 23 31 29 31 35 34 29 32 30 26 22 23 21 18 17 21 19 17 15 16 12 14 12 18 18 13 10 9 14 18 19 20 21 25 25
51 52 55 57 54 52 49 49 50 44 26 30 28 27 35 32 27 37 31 27 24 21 17 16 22 19 18 16 14 13 16 16 17 15 7 16 -1 12 14 15 19 21 24 28 31
49 50 51 54 51 50 50 51 49 32 15 27 31 34 35 25 30 34 35 28 22 23 19 17 21 20 18 16 16 14 20 18 18 18 17 16 9 8 10 13 15 23 29 31 32
48 49 51 53 54 52 53 50 43 28 16 34 33 29 27 30 32 33 31 28 28 25 22 23 27 22 18 24 21 24 18 18 19 13 9 12 8 3 5 11 17 28 29 30 31
46 47 48 49 50 54 53 47 33 23 28 33 32 29 26 29 31 29 29 25 21 19 19 25 24 27 26 24 24 18 14 12 12 13 9 15 12 7 11 15 22 27 29 30 31
45 47 46 48 49 51 50 41 22 25 26 35 32 27 23 28 29 29 27 24 26 20 22 19 16 25 26 22 22 18 13 14 7 9 8 18 14 9 23 24 27 29 29 30 30
44 45 45 48 51 52 46 34 26 30 32 32 28 24 25 27 29 28 27 23 24 22 14 15 14 26 25 25 23 19 14 15 17 11 13 14 15 18 26 27 27 28 29 30 30
40 42 43 48 51 48 42 34 35 38 35 33 30 27 23 26 26 26 26 25 24 24 22 20 17 26 26 25 24 19 20 16 16 6 5 7 11 12 25 26 27 28 29 30 31
39 36 42 48 49 41 33 34 37 40 40 34 33 31 27 26 25 26 25 25 25 26 21 20 22 25 25 23 21 19 18 18 16 17 9 8 8 14 25 27 27 29 29 30 31
36 29 40 48 36 34 33 37 40 42 42 39 38 33 29 28 27 26 23 24 28 26 21 23 24 24 23 25 25 23 18 18 15 14 15 15 10 22 27 28 29 29 29 31 35
33 33 40 45 32 32 34 38 41 41 41 39 38 38 37 29 27 27 26 36 35 27 23 25 23 17 22 24 26 23 22 20 20 23 18 16 13 25 27 27 28 29 31 34 34
32 27 33 40 37 35 33 33 35 41 40 39 39 39 37 35 36 34 35 37 37 35 39 32 25 19 12 16 24 23 23 22 18 19 18 18 20 24 26 28 28 32 34 34 34
32 28 30 29 33 34 36 34 34 35 39 40 36 37 37 34 35 34 37 35 36 37 36 30 24 28 30 29 26 25 26 23 19 16 14 14 19 24 26 30 30 34 34 34 34
29 27 31 28 29 33 34 33 33 34 37 37 35 37 36 34 35 33 36 36 36 37 35 35 29 30 29 32 30 29 29 26 21 21 27 20 19 25 27 32 34 34 34 32 33
32 34 30 29 29 31 30 30 30 33 34 33 36 37 35 35 37 36 38 38 37 35 34 34 32 28 25 30 29 27 29 29 28 31 24 25 27 32 32 33 34 33 31 30 31

GFSSW_sfc_dewp_093.txt.gz
Dewpoint
58 58 57 58 58 59 60 61 61 61 61 61 61 60 60 59 59 54 38 38 42 56 50 32 31 31 31 31 33 32 27 26 24 20 18 26 24 25 25 25 31 36 33 45 55
58 58 58 58 58 59 60 60 61 61 61 61 59 59 59 59 52 38 46 53 54 58 33 30 29 31 26 27 30 28 27 25 24 19 19 26 23 23 21 23 25 34 43 53 56
58 58 58 58 59 59 60 60 60 60 59 59 59 59 59 55 35 25 57 57 57 55 33 31 29 28 29 28 28 28 26 25 23 20 20 24 23 22 20 21 21 25 36 53 55
58 57 58 57 59 59 59 60 59 59 59 59 59 58 57 47 17 36 59 59 59 43 32 30 29 27 26 25 26 23 21 22 23 25 23 24 22 22 21 23 25 26 34 49 52
57 57 57 57 58 59 59 59 58 58 58 58 58 58 50 34 29 42 59 57 44 37 30 29 26 26 24 22 24 25 20 22 24 24 23 24 22 20 22 24 24 25 33 44 48
57 56 56 57 58 59 59 58 57 58 58 58 58 58 45 25 38 42 43 41 35 32 29 28 25 26 21 22 21 22 22 22 22 23 23 22 21 21 19 21 22 24 30 37 44
56 56 56 56 57 58 58 58 57 58 58 57 57 49 37 25 37 39 39 36 33 32 29 28 27 25 24 24 22 23 21 21 20 21 21 21 18 18 16 16 16 20 24 31 40
56 55 56 56 57 58 58 58 58 58 58 58 58 45 24 40 37 36 35 34 32 30 29 29 26 27 27 23 19 17 19 17 19 21 24 21 16 17 18 16 14 14 18 27 33
56 55 56 56 56 57 58 58 57 57 57 57 45 41 21 44 34 34 34 31 32 31 31 27 29 25 24 19 16 17 12 15 14 21 21 18 15 17 18 20 14 13 14 18 22
55 55 55 56 56 57 57 57 58 56 51 45 36 33 31 34 37 34 33 32 29 32 28 27 25 21 19 15 13 15 12 13 13 17 21 19 17 15 19 19 19 17 19 22 21
55 55 55 56 56 57 56 52 41 40 38 25 26 24 28 37 36 33 33 30 29 27 22 26 20 17 14 14 12 12 11 10 11 21 19 18 16 12 13 19 18 19 19 20 21
55 55 55 56 56 57 51 35 30 30 30 31 28 33 37 35 30 32 32 25 25 22 22 23 17 18 18 15 13 12 10 8 19 23 22 19 17 14 15 20 20 20 19 19 21
55 55 55 56 56 55 49 38 39 33 23 27 28 31 34 35 29 30 30 26 21 20 22 17 16 21 17 14 12 11 9 10 9 21 20 17 12 13 15 17 21 21 21 24 26
55 55 55 56 52 49 47 40 47 43 19 23 25 27 36 32 30 35 30 25 22 19 20 16 21 19 18 14 13 11 12 15 20 15 4 17 -3 11 11 16 22 27 26 28 31
55 54 55 54 46 47 44 47 48 41 18 22 24 34 36 25 30 32 33 26 20 18 16 15 19 19 18 14 16 14 18 17 19 13 15 12 5 -1 11 15 23 29 31 32 34
51 52 54 54 53 49 50 50 46 27 21 26 27 28 28 28 31 32 29 28 26 21 19 23 24 19 17 19 18 21 18 19 18 14 7 4 6 -0 8 10 23 29 31 33 33
49 50 53 53 49 54 52 49 35 29 23 29 24 26 22 24 28 27 26 23 17 14 15 23 19 25 22 21 22 18 13 12 10 13 8 14 16 4 12 16 24 28 31 32 34
47 49 50 50 52 54 52 40 29 22 18 31 25 25 21 24 26 27 25 20 20 13 12 12 14 23 23 17 17 20 11 16 19 15 11 19 14 9 16 21 27 29 31 33 34
47 47 48 49 51 53 46 33 28 19 23 30 25 22 20 23 26 27 23 20 20 19 10 10 13 26 24 24 18 18 14 16 18 23 19 12 12 19 25 25 28 29 31 33 35
46 44 44 48 50 50 41 33 24 29 30 26 19 19 18 21 24 23 22 21 21 23 20 15 20 26 25 25 23 19 14 11 14 23 18 10 11 6 23 24 28 29 30 33 36
43 37 44 48 49 45 35 33 26 35 31 25 22 21 17 20 21 23 21 22 21 25 23 17 22 25 25 22 17 17 15 15 9 18 27 16 5 9 21 24 27 29 30 33 36
40 33 44 48 35 34 36 34 30 36 39 34 32 24 20 22 22 22 20 21 25 25 19 26 25 24 21 26 26 20 14 14 13 19 13 22 13 23 20 24 28 29 31 34 36
36 36 43 44 32 32 34 37 35 33 37 36 34 32 27 23 22 24 24 32 28 25 22 25 30 28 23 22 26 22 19 16 13 28 30 23 7 24 21 25 28 30 32 35 36
34 31 37 40 36 33 32 35 36 37 36 38 36 36 30 25 26 26 27 36 36 28 36 29 31 20 15 13 18 22 21 21 16 21 18 16 11 23 25 27 29 31 32 35 34
34 27 32 32 34 35 34 33 34 36 40 39 37 36 30 31 28 28 29 36 36 37 33 27 28 22 17 16 18 21 22 22 18 15 13 12 13 14 25 28 29 31 32 34 34
34 30 30 31 33 33 34 34 33 33 35 36 36 35 36 33 31 32 33 32 31 35 30 32 34 25 32 25 27 26 25 23 21 19 16 12 12 16 23 27 29 31 34 34 34
38 37 33 28 32 31 31 33 34 35 35 35 37 37 36 36 37 38 37 37 37 34 32 34 34 34 31 32 31 28 28 24 23 20 17 14 16 22 25 28 30 32 34 34 35

GFSSW_sfc_dewp_096.txt.gz
Dewpoint
58 59 58 57 58 59 60 61 61 62 62 62 62 61 60 58 58 50 43 43 46 58 51 34 35 32 34 36 38 38 32 31 28 26 25 26 25 26 25 28 32 35 44 50 56
58 59 58 58 59 58 60 60 61 62 62 62 61 60 60 59 51 45 50 60 59 59 35 32 32 32 30 32 33 31 32 31 27 23 25 25 23 24 21 26 31 37 49 54 56
58 58 58 59 59 58 59 60 61 61 61 61 60 60 59 57 44 38 54 56 58 58 34 32 31 31 30 32 32 30 31 29 23 25 24 26 24 22 21 23 25 33 48 53 55
58 58 58 59 59 58 59 59 60 61 60 60 60 59 59 51 34 39 58 58 60 47 34 32 30 31 29 30 28 28 27 25 28 28 26 26 24 23 22 24 27 30 47 53 54
57 58 58 58 58 58 58 59 60 59 59 59 59 59 51 39 39 46 59 60 52 39 33 31 29 31 29 28 28 29 23 24 28 26 25 24 24 23 23 24 25 29 44 50 51
57 57 57 57 57 58 58 59 59 59 59 59 59 58 49 30 40 45 48 50 40 36 33 32 28 29 26 25 26 25 25 24 25 24 26 24 23 23 22 24 23 28 34 44 48
57 57 57 57 57 58 58 59 58 58 58 58 58 49 37 33 37 43 44 40 38 35 33 33 32 29 30 28 25 26 23 23 23 24 24 24 22 20 18 19 19 22 27 34 42
57 56 56 56 57 57 58 58 58 58 58 58 59 46 32 44 37 39 39 37 36 34 36 34 31 34 33 27 23 23 23 22 23 23 27 25 22 21 17 15 16 18 21 29 35
56 56 56 56 56 57 58 58 58 58 57 58 50 44 29 45 35 36 36 34 34 33 34 26 34 30 29 22 19 20 18 19 19 23 23 21 19 17 20 18 16 14 16 26 29
57 55 56 56 56 57 57 57 58 57 54 48 40 37 34 34 37 35 36 34 33 35 30 32 30 28 23 20 15 18 16 17 17 19 23 19 19 18 18 19 19 14 17 19 20
57 55 55 55 56 57 56 54 48 42 41 31 30 29 31 37 37 35 36 33 33 31 26 28 23 20 19 18 17 18 16 14 18 21 21 20 19 17 20 19 18 19 19 22 23
56 55 55 56 56 57 52 40 37 37 35 35 30 34 37 36 32 34 34 29 31 25 27 27 21 22 21 18 17 16 16 15 22 22 23 19 18 17 17 18 20 19 19 20 21
56 56 55 55 56 55 50 41 37 33 28 31 30 32 36 38 32 33 32 28 25 23 24 22 21 22 19 17 15 15 14 15 18 23 22 17 16 20 19 19 20 23 21 23 25
56 55 55 55 52 50 49 47 46 43 22 25 27 31 37 36 33 37 33 29 23 21 23 23 23 21 21 16 15 13 16 20 23 17 10 16 1 15 16 17 22 24 23 24 30
56 55 55 53 46 47 46 47 48 45 22 25 26 37 36 30 32 33 35 30 22 21 22 22 21 21 21 18 19 19 21 21 23 19 16 13 8 7 15 16 22 27 29 32 32
55 55 54 51 51 47 47 50 48 33 23 24 29 32 30 30 32 33 30 31 29 23 23 24 25 23 21 23 20 23 21 20 18 15 11 9 5 8 11 13 22 29 31 34 34
52 54 52 50 47 51 51 49 32 26 25 27 24 28 24 27 30 27 26 25 22 18 19 23 22 26 24 22 23 20 16 15 12 14 13 16 12 9 14 19 26 29 32 33 34
50 53 51 51 53 53 50 38 24 22 21 30 25 26 21 25 27 27 25 21 22 16 18 16 18 23 22 20 20 21 13 20 12 17 13 18 12 12 20 21 28 30 32 33 35
49 48 48 48 52 53 43 29 24 22 22 25 24 23 21 24 25 26 23 20 20 19 12 14 20 26 24 25 21 20 15 19 17 18 21 15 14 23 25 24 29 31 32 34 36
45 44 44 48 50 49 39 28 25 29 26 25 22 22 19 22 24 24 23 21 21 23 21 16 21 27 26 26 25 20 16 14 17 11 12 14 14 10 23 24 29 30 32 34 36
43 37 43 48 49 43 33 29 26 33 29 25 21 21 21 22 22 22 22 22 21 22 22 18 25 26 25 23 19 17 16 15 12 21 19 16 11 13 21 23 28 30 31 35 36
41 33 44 47 37 37 33 32 31 33 37 31 32 23 19 22 22 22 19 21 21 24 19 25 28 25 22 26 26 23 16 15 15 15 16 23 16 23 22 23 28 29 31 35 37
37 36 44 42 32 32 36 32 32 36 36 35 33 31 27 21 23 24 23 32 28 24 21 25 28 24 22 22 26 22 20 17 15 25 21 17 11 24 21 24 28 29 32 35 36
37 32 36 38 33 33 34 34 32 38 37 36 35 35 29 23 25 23 29 36 34 28 36 32 31 23 14 15 21 21 21 20 17 22 19 18 10 22 21 25 28 30 33 36 35
35 31 34 31 33 34 34 34 33 32 38 39 37 35 29 28 25 27 28 35 35 36 30 28 28 26 20 14 19 21 21 21 18 16 13 10 14 15 23 25 27 30 33 35 34
35 30 32 32 34 34 33 33 34 35 36 37 37 37 33 32 27 29 29 32 31 35 30 30 28 25 24 22 25 22 23 21 20 17 16 13 12 13 25 27 28 30 33 35 34
38 38 34 32 33 31 30 33 33 35 35 35 37 36 36 37 38 39 36 35 34 31 29 30 30 28 22 29 26 22 25 24 21 20 17 13 14 21 24 27 28 31 32 34 34

GFSSW_sfc_dewp_102.txt.gz
Dewpoint
59 59 59 60 60 61 62 63 62 62 61 62 61 59 58 57 56 49 42 44 47 61 54 43 50 53 48 32 34 33 29 28 28 22 23 26 24 25 31 34 43 46 52 54 56
58 59 59 59 60 60 61 62 61 61 61 62 61 60 57 56 47 44 49 55 60 60 47 49 51 50 42 33 31 27 30 29 29 25 24 25 23 23 31 35 48 52 54 56 56
58 58 59 59 59 60 61 61 61 61 61 61 61 60 56 53 49 48 56 57 61 59 50 53 52 49 45 41 29 30 26 31 26 25 26 24 23 23 29 27 45 52 54 55 55
58 58 58 58 59 59 60 61 61 61 61 61 61 59 56 49 41 47 59 59 59 50 51 54 53 49 44 40 33 26 26 24 29 27 26 24 23 22 23 22 39 54 55 55 54
58 57 58 58 59 58 59 60 61 61 61 61 60 58 50 42 46 44 60 59 53 46 45 50 50 48 45 39 33 26 24 25 27 27 27 24 22 22 23 26 49 54 55 54 54
58 57 57 57 58 59 59 59 60 61 61 61 60 57 41 41 41 44 50 55 50 42 37 51 50 49 45 40 38 26 26 24 25 25 25 23 22 22 23 33 52 54 54 54 54
58 57 57 57 58 58 58 59 60 60 60 60 59 47 42 37 38 50 53 52 47 39 35 40 50 50 48 39 42 26 23 23 23 24 23 22 21 19 22 37 51 52 53 54 54
58 56 57 57 57 57 57 58 59 59 60 60 58 46 34 40 42 47 45 43 43 39 36 36 45 46 33 28 26 22 22 19 21 23 23 21 18 20 23 32 44 46 49 52 53
56 57 56 56 56 56 57 58 58 59 59 59 49 44 33 45 40 41 40 39 39 40 37 30 40 30 28 21 21 21 19 19 20 23 20 20 18 19 19 22 25 27 33 42 48
54 57 56 56 56 56 57 57 58 57 56 49 46 40 36 35 37 39 37 36 36 33 29 28 27 25 24 20 18 19 17 18 18 20 19 18 17 18 17 16 17 17 19 26 35
54 57 56 55 56 57 55 53 48 46 48 41 40 39 33 36 37 36 36 33 36 32 27 28 24 22 22 20 19 19 16 17 17 20 18 17 17 16 17 19 17 15 16 23 29
55 57 56 55 56 56 51 44 41 42 40 43 40 37 37 35 32 34 33 29 30 29 28 26 23 24 24 21 20 18 16 16 21 22 18 19 16 17 17 18 18 17 16 22 22
55 56 56 56 56 53 47 43 41 36 30 32 37 36 35 35 32 33 31 30 27 25 25 23 24 25 23 20 17 15 15 17 16 20 19 17 15 17 19 19 18 19 18 21 22
52 56 55 55 53 50 45 45 41 39 24 27 31 32 36 35 31 34 32 29 26 24 25 23 24 23 23 18 17 14 16 17 20 13 10 12 9 5 17 18 19 19 20 21 23
52 56 55 55 49 48 44 49 46 39 17 26 29 35 36 30 31 32 33 27 24 23 24 22 22 23 21 19 18 16 21 22 22 13 13 18 3 3 16 16 18 19 21 23 27
51 56 55 53 51 49 45 49 42 30 21 26 31 33 32 30 31 31 29 29 25 23 23 23 23 22 22 20 18 22 19 17 18 14 10 10 7 4 13 14 16 20 22 23 30
50 55 54 52 47 49 47 46 30 23 26 26 28 30 27 28 29 28 27 25 21 19 19 20 20 24 23 19 23 19 13 12 8 13 12 15 8 6 9 14 16 18 23 30 34
50 54 54 51 50 49 47 34 23 23 23 27 29 28 24 28 28 27 25 24 23 20 19 16 15 21 21 20 20 17 12 14 7 11 7 15 12 10 15 17 21 21 28 34 35
49 53 50 49 50 50 40 28 24 25 28 26 28 24 25 26 26 24 24 24 22 20 17 16 16 25 23 23 20 16 13 15 17 15 17 11 10 13 21 22 28 30 33 34 35
44 47 44 48 52 47 36 28 25 28 28 26 22 22 21 23 24 23 23 23 22 22 19 17 18 26 24 24 22 19 17 16 17 12 11 11 11 4 17 16 26 31 32 34 35
41 39 43 47 50 43 33 29 26 28 27 24 25 24 20 22 23 22 23 22 22 22 21 23 23 24 24 21 18 16 14 13 17 19 14 9 7 15 12 17 24 30 32 34 36
37 32 42 48 39 39 34 31 31 33 31 31 26 25 22 22 24 22 22 21 23 22 19 25 26 23 20 24 26 21 15 15 12 13 16 17 9 15 16 18 23 31 32 35 37
33 33 41 44 32 33 36 32 32 32 33 30 25 25 24 21 22 23 24 26 25 22 22 28 26 22 21 20 24 21 19 16 19 21 20 14 10 15 21 22 24 31 33 36 37
35 31 33 35 34 34 34 32 29 37 37 35 32 28 25 24 25 25 24 31 33 23 35 31 27 23 15 14 20 20 20 18 16 18 15 16 7 7 17 21 28 31 33 36 36
36 31 32 29 32 34 36 33 29 33 36 37 34 27 25 24 24 25 31 31 31 36 29 25 22 24 19 18 21 19 21 19 14 11 11 8 13 10 11 20 27 30 34 36 35
32 32 34 32 33 36 35 32 30 33 34 33 33 33 30 27 25 25 30 28 27 31 26 27 20 21 21 20 20 19 20 20 18 17 13 12 11 13 14 24 28 30 34 35 35
36 36 34 33 32 31 33 33 31 35 35 36 36 35 33 37 36 35 31 32 30 29 27 27 27 24 18 25 25 22 22 21 19 16 15 13 13 17 17 22 27 30 33 34 35

GFSSW_sfc_dewp_105.txt.gz
Dewpoint
59 59 59 59 59 61 62 62 63 63 61 62 60 59 59 58 56 47 41 46 54 62 56 46 49 48 43 35 33 33 29 28 28 21 22 25 23 25 32 35 42 46 53 55 60
59 59 59 59 60 61 61 62 62 62 61 62 60 60 58 57 47 42 50 54 57 62 45 44 50 45 43 37 32 28 30 29 30 24 24 25 23 25 32 41 48 50 53 57 61
59 58 58 59 60 60 61 62 62 61 61 61 60 59 57 54 47 45 58 56 56 57 52 53 50 47 43 43 33 28 26 30 28 23 26 25 23 24 31 33 45 48 55 57 60
59 57 58 58 59 60 61 62 61 61 61 61 60 59 56 49 33 49 58 61 60 54 55 53 50 46 43 41 40 27 27 25 28 28 26 24 23 26 27 25 39 53 56 56 59
59 57 57 58 58 59 60 61 61 61 60 61 60 57 48 46 47 44 59 59 51 49 51 52 48 47 43 43 42 31 26 24 26 27 25 24 22 22 23 27 52 54 55 55 58
58 58 57 57 58 58 59 60 61 61 60 60 59 56 43 44 47 46 52 52 47 41 49 52 50 48 44 44 43 37 37 26 24 24 25 22 22 23 23 41 53 54 54 55 54
57 58 56 57 57 58 58 59 60 60 60 60 58 48 41 47 37 47 52 53 49 40 49 52 52 50 45 43 44 42 39 34 22 24 23 22 21 20 23 48 52 53 54 54 54
54 58 56 57 57 57 58 59 60 59 60 60 57 45 41 40 44 51 48 47 45 39 39 47 53 51 45 42 39 38 27 24 22 23 23 21 20 21 26 49 51 52 52 53 54
55 57 56 56 56 57 58 59 59 60 60 58 49 41 32 46 40 44 43 47 43 39 36 34 49 42 40 32 35 31 26 19 20 23 21 20 19 20 24 43 49 49 50 52 53
55 56 56 56 56 56 57 58 59 58 55 48 47 34 38 35 38 41 38 45 43 40 35 31 38 38 36 28 27 27 19 19 18 20 20 19 18 18 20 30 40 43 44 47 51
55 54 56 55 56 56 56 54 49 49 47 40 41 36 35 36 38 38 36 37 43 42 32 29 26 29 35 34 23 20 19 18 18 20 18 19 19 18 18 17 19 24 25 31 41
54 54 57 55 55 56 52 47 42 44 42 43 41 37 36 35 33 35 35 33 37 37 30 27 23 26 27 24 22 19 18 18 21 22 19 18 17 18 17 17 18 17 17 19 25
51 54 56 55 55 54 48 41 44 38 31 34 39 36 34 33 32 34 32 31 31 29 27 25 25 26 25 24 22 18 19 18 19 20 19 17 16 16 18 19 18 19 18 17 22
50 53 56 55 53 51 46 43 43 36 23 28 34 34 36 33 29 35 32 29 28 27 28 28 27 26 26 25 23 20 18 19 20 16 14 15 13 11 16 17 19 18 18 19 21
49 52 54 55 50 48 45 46 43 36 16 28 31 35 36 27 31 32 33 26 26 26 25 25 24 28 27 27 24 21 20 19 22 15 12 12 8 9 13 14 17 19 19 20 21
49 51 52 54 51 49 49 47 39 29 16 28 32 32 32 31 30 32 30 28 26 24 24 23 24 28 29 26 26 22 19 17 18 14 11 12 11 10 9 11 13 16 19 21 24
48 50 52 53 49 48 49 41 30 20 24 26 29 29 27 28 29 29 28 26 21 20 21 20 20 23 22 20 23 19 17 16 13 14 12 13 9 11 9 11 14 14 18 21 26
48 49 53 52 51 49 47 34 15 21 21 28 30 27 24 27 27 27 27 25 25 20 20 19 17 21 22 21 20 19 16 17 11 13 10 15 11 11 14 15 14 16 19 25 28
48 50 52 52 50 49 39 29 23 21 26 28 27 24 25 26 27 25 27 25 24 21 17 18 17 24 22 21 20 18 14 16 17 16 15 11 11 12 15 15 21 25 27 29 32
43 45 47 52 51 47 36 29 25 28 28 27 23 23 22 24 24 23 25 26 24 23 20 18 16 25 24 22 21 18 17 15 18 12 9 10 10 7 9 12 14 25 28 30 34
40 40 44 46 51 43 33 28 26 29 28 24 24 24 20 23 21 22 23 23 25 23 20 21 20 23 23 20 18 14 15 16 16 19 13 9 6 14 7 13 10 18 29 33 35
36 32 43 43 39 39 34 30 32 28 29 27 26 23 21 23 24 21 21 19 24 23 19 24 24 22 19 24 25 21 15 14 14 14 15 16 11 10 15 16 17 25 31 34 35
33 32 41 42 32 34 35 31 30 30 29 26 25 24 23 23 22 23 23 24 25 22 22 27 24 20 20 19 24 21 19 16 18 22 18 14 9 10 20 20 21 26 32 34 36
35 31 33 36 35 36 34 30 29 35 33 31 26 25 24 23 25 24 24 29 28 24 35 31 26 20 14 14 21 21 19 18 15 18 15 15 10 9 9 17 23 30 33 35 36
36 31 31 30 31 36 36 32 30 31 35 35 30 24 24 24 24 25 29 31 30 33 29 25 23 22 18 18 18 19 21 18 15 14 13 11 11 11 9 12 20 29 33 36 36
31 32 33 32 33 35 36 33 30 33 34 33 29 27 26 26 24 25 28 28 27 30 24 26 21 21 21 21 21 19 20 20 18 17 15 14 12 12 13 20 26 29 33 35 35
35 38 34 32 32 34 34 34 30 34 36 36 33 31 29 34 33 28 29 30 30 27 24 26 24 20 15 23 22 21 21 20 19 18 16 14 14 15 15 18 21 28 32 33 35

GFSSW_sfc_dewp_108.txt.gz
Dewpoint
58 59 59 59 58 59 60 61 62 62 60 62 61 60 60 59 59 54 45 49 51 61 55 45 48 50 47 39 35 34 30 28 28 22 24 26 24 27 34 43 42 49 52 55 60
58 59 59 59 58 58 60 61 61 62 60 61 60 59 59 57 47 43 50 58 61 62 44 44 45 48 47 45 34 30 30 29 30 24 23 25 24 26 34 43 46 50 55 60 61
56 59 59 58 59 59 60 60 61 62 61 60 59 59 58 54 40 38 57 60 60 56 51 50 48 45 45 44 36 30 27 28 30 24 26 25 23 29 34 39 44 47 55 59 59
56 59 58 58 59 59 60 60 61 62 61 60 59 59 57 48 37 45 60 60 60 54 56 50 46 44 43 40 40 28 28 26 27 27 27 24 24 26 32 30 34 48 57 59 58
55 59 58 58 58 59 60 59 61 61 61 60 60 58 49 46 43 53 60 59 54 54 55 52 45 46 42 41 40 35 31 36 32 25 26 24 22 23 28 30 49 55 57 58 58
56 58 57 57 57 58 59 60 62 61 61 60 59 57 46 41 46 54 56 51 50 53 54 54 49 48 46 43 40 41 41 38 34 24 25 23 21 23 24 47 53 55 55 57 58
53 58 58 57 57 58 59 60 61 61 60 60 58 48 45 43 39 52 51 48 47 51 53 53 53 50 46 45 44 42 39 37 35 25 24 23 20 20 24 49 52 54 54 54 57
53 53 58 57 57 58 59 60 60 60 60 60 57 44 46 43 49 49 50 48 42 44 50 51 55 51 47 43 43 42 35 36 35 23 24 21 21 21 32 48 50 52 52 53 54
53 53 56 57 57 57 58 59 60 60 60 58 49 45 43 48 42 48 47 45 40 39 46 48 52 49 42 41 40 40 38 34 35 23 22 21 20 21 31 46 48 50 50 52 53
52 53 53 57 56 57 58 59 59 60 56 52 49 43 40 37 41 45 39 44 40 37 36 36 39 43 40 39 36 36 36 27 34 21 20 20 19 18 22 43 46 48 49 50 51
53 53 53 57 56 57 57 57 52 49 48 43 43 36 36 37 41 40 40 45 45 35 33 33 31 37 37 34 29 32 32 31 20 20 20 20 20 20 19 21 33 43 46 47 50
52 53 54 57 56 57 55 51 48 48 41 42 43 37 36 36 35 37 40 40 43 34 31 30 28 31 35 34 32 25 22 25 21 21 19 19 18 20 17 19 22 30 35 39 41
51 53 54 56 55 55 53 47 46 42 38 36 40 36 34 34 34 35 35 36 42 37 31 30 27 29 29 28 29 28 25 20 21 21 20 17 17 17 18 18 18 19 22 25 31
50 51 53 54 54 53 49 46 43 33 28 34 37 34 35 33 32 35 34 33 32 37 33 28 27 26 27 25 25 25 25 20 22 25 23 17 15 16 16 17 18 18 18 19 18
49 51 52 53 52 50 45 45 46 36 23 32 36 37 36 27 31 33 32 29 27 29 28 29 28 27 26 26 27 25 22 21 22 19 15 14 12 14 11 14 17 18 19 18 19
47 50 52 52 53 49 46 44 39 26 19 29 33 32 31 30 30 32 30 27 28 28 27 27 25 27 27 29 29 27 31 21 20 18 16 17 14 13 11 12 13 17 18 19 19
47 49 51 52 50 48 47 42 31 25 26 27 28 31 28 28 29 30 28 23 25 22 25 22 20 23 29 27 30 30 31 23 15 16 15 13 11 12 14 11 13 13 16 18 20
46 48 50 50 52 50 45 37 18 24 23 29 30 29 27 27 28 28 27 24 25 21 24 23 20 21 23 27 26 27 29 22 16 15 13 15 11 12 15 15 12 14 15 17 21
47 47 49 50 52 49 41 29 23 21 26 28 27 25 25 26 27 27 27 25 24 21 20 21 20 23 22 21 24 20 26 23 17 17 16 13 12 13 15 12 13 17 21 20 22
41 44 47 51 53 47 36 29 24 26 29 27 22 22 22 24 25 25 26 26 24 23 20 20 18 23 23 20 20 19 20 16 18 14 11 10 9 10 7 11 11 11 20 21 26
38 41 44 47 52 42 32 29 26 28 29 24 25 24 21 23 24 24 26 25 26 24 20 19 20 22 22 19 17 15 16 16 16 19 16 11 8 12 10 9 10 11 22 27 31
38 33 43 45 39 37 33 28 31 28 28 26 26 23 21 23 23 23 24 21 26 24 19 22 23 21 19 25 25 17 16 15 15 15 15 18 11 10 14 15 16 16 21 30 33
34 33 41 42 31 32 36 30 30 28 27 25 24 23 23 22 22 23 22 25 27 24 22 25 22 16 19 20 25 19 18 16 17 22 18 16 12 10 14 18 19 21 23 31 35
35 28 34 35 33 34 35 30 29 32 30 26 25 24 24 23 24 23 23 26 28 25 35 29 25 20 14 14 21 20 18 16 16 18 16 16 13 12 8 10 14 22 29 33 35
35 30 32 30 31 34 36 32 30 31 32 30 25 22 23 23 23 23 26 29 28 34 29 25 24 23 19 15 19 20 20 18 15 14 15 14 14 13 13 11 12 19 31 34 35
30 31 33 32 32 33 36 31 28 33 33 30 25 24 24 24 23 24 27 26 25 30 25 25 21 22 20 19 19 18 21 20 17 17 15 15 14 13 13 12 20 23 30 33 34
35 38 34 32 31 32 34 33 29 33 36 35 28 26 25 25 25 26 28 28 29 26 26 26 24 20 15 23 21 19 21 20 18 18 17 15 16 15 14 14 16 18 28 30 32

GFSSW_sfc_dewp_111.txt.gz
Dewpoint
54 55 57 60 60 60 61 61 61 62 61 61 61 61 61 61 60 52 47 48 49 60 59 47 51 49 47 38 37 37 32 30 29 25 29 29 27 32 37 48 46 50 52 55 62
54 55 56 57 59 59 59 59 61 61 61 61 61 60 60 60 51 49 50 59 60 61 45 46 49 49 47 43 36 33 33 31 31 25 25 27 27 29 37 43 46 50 57 60 61
54 55 56 55 59 58 59 59 61 61 61 61 60 60 59 51 41 42 56 62 63 56 48 49 50 49 46 44 40 32 31 29 27 29 27 27 25 32 37 40 42 47 55 59 60
55 55 56 57 59 58 59 59 60 61 61 60 59 59 58 46 37 41 59 63 61 56 51 46 45 45 45 42 40 32 29 31 34 29 28 26 26 29 35 34 36 46 57 58 59
55 56 55 56 59 58 58 59 60 60 61 60 59 58 50 44 40 55 61 61 56 55 52 47 44 44 43 41 39 35 31 37 37 28 27 26 25 26 31 30 47 55 58 58 58
54 54 55 55 59 58 58 59 60 60 61 59 59 56 47 36 46 57 56 55 54 55 55 52 48 48 44 42 39 40 39 39 36 32 27 25 23 26 26 48 52 56 57 58 58
54 53 53 57 59 57 58 59 59 60 60 59 58 47 47 37 46 55 51 50 55 55 54 54 55 51 47 45 45 41 37 38 37 27 25 24 23 22 27 50 52 54 56 58 57
53 53 53 58 58 57 58 58 59 60 60 60 56 48 47 43 49 52 48 46 50 54 54 55 53 52 49 45 44 42 39 37 37 27 25 26 24 25 33 48 50 52 53 55 57
53 52 53 56 57 57 58 58 59 61 60 58 50 49 44 48 48 49 47 43 41 49 53 51 51 48 46 44 42 42 38 36 37 31 27 24 24 24 35 45 47 50 52 53 54
52 51 52 53 57 57 58 58 60 60 57 53 50 46 44 38 44 46 45 41 40 46 42 40 47 44 42 42 38 37 38 34 37 29 23 23 21 22 23 42 41 48 50 52 53
52 52 52 53 57 57 57 57 54 50 51 45 46 38 43 40 43 42 45 42 39 37 34 35 36 40 40 40 37 38 39 37 25 36 25 22 21 22 21 27 35 45 49 50 52
51 52 51 52 57 56 55 52 51 49 41 46 45 36 37 41 39 38 44 41 35 32 33 31 30 39 39 37 31 32 32 32 34 22 21 21 20 21 20 20 23 32 44 48 49
50 52 52 52 57 55 53 52 53 49 40 40 43 35 35 38 40 39 43 42 35 32 32 32 32 32 36 35 35 31 25 23 22 22 21 19 21 19 20 20 20 22 31 40 46
50 51 51 50 53 53 52 52 51 47 36 36 41 36 33 36 36 36 41 41 41 33 32 32 31 29 31 34 36 33 29 29 24 25 23 21 19 20 19 19 19 20 20 22 31
48 50 51 50 50 51 51 49 44 40 25 36 39 39 35 34 35 36 34 33 36 36 35 34 31 28 28 30 29 26 25 21 23 22 20 17 17 17 15 16 18 19 22 20 22
47 49 51 49 49 52 50 44 41 34 26 33 38 35 30 31 32 33 33 29 32 31 33 31 29 28 27 28 28 32 33 34 24 19 18 20 18 17 17 13 15 19 20 21 21
47 49 49 50 47 53 49 43 33 30 34 31 33 34 27 28 30 33 30 26 28 27 27 26 24 27 29 28 31 33 32 28 25 22 20 14 16 20 18 14 15 17 19 20 21
46 47 49 50 51 51 47 39 29 30 29 30 33 31 26 27 29 29 28 25 26 26 26 26 25 24 28 28 30 30 31 24 17 17 16 15 13 14 17 19 15 14 15 17 18
46 46 47 49 51 51 42 32 30 29 27 28 29 26 26 26 28 28 26 25 26 25 25 24 22 23 26 26 30 28 30 24 17 15 16 14 14 15 18 14 14 15 17 18 18
42 44 45 50 50 46 39 33 24 27 29 29 27 25 24 23 26 27 26 26 26 24 22 23 19 23 23 23 25 28 28 26 22 11 10 11 10 13 11 13 14 13 15 18 23
39 40 43 48 48 41 33 34 27 28 28 24 24 24 23 23 25 26 26 27 25 24 20 21 22 22 22 20 20 19 25 20 23 20 15 12 11 13 13 13 13 15 14 18 24
37 33 42 46 34 33 33 28 31 28 28 27 26 22 23 24 25 24 26 24 26 24 19 21 23 21 20 22 21 20 21 21 18 15 15 18 16 13 14 14 15 15 18 20 28
34 33 41 44 30 31 36 31 28 28 26 25 24 23 24 23 23 24 26 27 27 24 21 23 23 19 20 19 23 18 17 22 18 21 18 16 14 13 13 16 18 19 21 25 32
35 30 34 36 32 33 34 32 28 30 27 26 24 24 24 23 24 25 24 26 29 26 35 28 24 20 15 16 21 20 18 17 18 18 16 17 14 15 13 9 12 16 24 29 33
36 29 32 28 30 33 37 34 28 27 29 27 23 22 23 22 23 23 26 27 28 33 28 24 20 20 17 17 20 20 20 17 15 16 15 15 15 15 15 15 14 13 26 30 31
32 32 33 31 33 33 33 34 28 30 29 24 22 23 24 24 22 24 26 25 25 28 25 25 20 21 20 17 19 18 21 19 17 17 16 15 15 16 17 15 13 17 23 26 28
36 37 33 31 31 32 33 33 31 31 34 28 25 24 23 24 25 27 27 27 28 26 25 24 23 19 18 22 20 17 20 20 18 18 17 15 17 17 16 14 16 16 18 22 27

GFSSW_sfc_dewp_114.txt.gz
Dewpoint
55 56 55 55 56 56 60 61 61 62 63 62 62 61 61 61 61 55 46 49 49 59 61 51 49 47 46 38 34 35 33 31 30 26 26 35 32 35 40 45 48 50 50 56 61
54 55 55 55 56 57 60 60 61 61 62 62 62 61 61 60 52 48 53 58 58 63 51 53 52 46 43 41 39 33 35 33 30 25 26 33 33 33 38 44 44 49 56 60 62
55 55 55 55 55 56 57 59 60 60 61 61 61 60 60 55 46 44 56 59 61 59 51 51 53 48 44 42 39 38 37 32 25 28 26 28 29 33 34 38 37 42 54 59 60
55 56 55 55 56 57 57 59 59 60 61 61 60 60 59 46 38 40 57 60 63 50 48 49 49 48 46 41 41 40 31 30 33 27 26 26 28 30 33 30 36 42 55 59 58
55 55 55 55 56 56 57 59 59 59 60 61 60 59 53 40 39 51 59 63 56 50 47 48 48 47 45 41 37 36 32 34 37 31 26 26 26 28 32 29 38 46 56 58 58
55 55 55 56 55 57 58 59 59 59 60 60 60 58 44 39 49 52 54 54 52 51 51 47 45 46 43 41 38 37 33 37 38 34 25 25 23 25 26 35 44 51 54 57 59
54 55 55 55 55 55 56 58 59 59 59 60 59 50 42 40 51 53 54 52 55 54 52 53 53 47 44 42 43 39 37 38 36 27 24 23 23 23 25 39 43 49 52 55 57
53 54 54 54 52 56 57 58 58 59 60 60 58 45 39 42 53 52 50 53 56 55 55 55 52 50 47 45 43 41 39 35 34 28 26 24 26 26 28 38 38 45 50 55 56
53 53 52 52 51 54 59 57 58 59 60 59 52 47 43 53 50 49 49 50 53 54 55 54 51 48 47 44 42 42 38 38 37 31 28 26 26 23 28 37 33 42 47 52 55
52 53 52 51 52 57 58 58 57 58 59 56 51 45 42 43 49 48 47 52 51 51 47 47 48 46 46 44 39 39 39 38 38 33 27 32 28 27 23 32 33 36 45 49 52
51 51 51 51 52 56 57 55 52 51 53 46 47 43 42 45 48 45 44 48 49 42 40 41 44 43 43 43 41 40 40 38 35 38 34 32 33 34 34 24 30 34 41 46 49
50 51 51 51 53 56 56 50 49 50 46 48 48 40 43 45 43 44 42 40 41 36 35 37 39 43 44 41 41 42 40 39 39 26 26 31 32 33 31 25 24 26 33 41 46
49 51 51 52 52 53 53 50 51 50 42 42 45 40 42 42 42 42 40 38 36 33 33 36 35 41 40 33 35 36 39 35 32 24 24 26 33 30 26 28 24 23 26 33 44
49 50 50 51 47 51 51 52 51 49 37 36 40 37 39 41 40 43 41 37 35 33 33 33 31 37 40 34 32 29 28 27 26 24 28 30 30 32 30 29 22 23 24 25 35
48 50 51 50 48 51 52 52 51 49 27 36 39 45 41 39 39 39 37 40 36 32 33 33 30 34 36 37 37 32 34 33 28 24 23 21 23 27 23 25 28 23 25 24 26
48 49 50 49 48 47 54 52 49 37 27 31 38 37 38 37 39 37 32 36 37 34 35 33 32 32 34 34 30 31 33 33 24 22 25 26 23 26 26 23 24 24 23 25 25
48 49 48 50 44 50 52 49 34 31 34 30 32 37 35 35 38 39 35 36 34 33 34 30 29 28 30 31 32 33 32 29 27 24 25 16 21 25 26 23 23 23 22 24 25
48 48 49 48 51 50 50 41 31 31 32 36 35 36 32 33 37 39 33 35 32 31 32 30 27 28 29 30 32 32 33 28 24 24 24 16 19 21 22 25 22 18 20 22 23
47 47 47 48 50 49 35 32 32 32 32 34 34 32 32 30 35 36 34 31 31 28 29 30 24 26 28 32 31 31 31 25 21 21 18 17 17 19 25 17 18 19 18 19 20
45 44 44 48 50 44 33 34 32 32 33 34 30 30 29 31 32 34 35 33 29 28 27 27 21 24 25 31 31 32 32 28 28 23 18 15 14 15 18 15 16 16 17 19 21
44 38 42 48 45 35 31 34 30 31 34 31 29 28 27 27 29 31 32 28 28 25 24 23 23 22 24 26 26 29 30 27 28 23 22 18 16 14 15 17 16 17 16 18 21
41 33 42 46 33 33 33 34 31 32 32 27 30 27 27 25 26 26 28 26 27 25 21 25 24 21 23 23 24 27 27 27 26 24 20 18 19 18 16 16 14 15 18 20 24
35 35 42 43 30 32 35 34 29 30 28 28 27 26 26 25 25 26 26 28 27 26 24 25 25 25 20 20 24 24 24 29 24 23 28 25 22 19 14 14 16 19 21 22 28
36 31 35 38 34 33 32 34 29 31 27 26 26 27 26 25 26 26 27 29 30 27 35 30 26 22 19 17 20 21 24 27 28 24 22 20 21 18 15 15 15 18 20 23 28
36 32 33 30 32 34 35 34 30 27 29 27 25 26 25 25 24 25 26 27 30 34 29 27 28 23 17 19 20 20 21 22 24 23 20 19 18 17 17 17 17 18 17 22 24
33 32 34 33 34 35 33 33 30 33 28 23 24 26 26 26 25 25 25 25 27 29 25 25 31 23 25 19 21 21 22 21 21 21 19 18 17 18 18 18 18 18 18 19 22
37 37 35 32 32 32 32 33 35 32 33 28 26 26 25 26 27 28 28 28 30 27 26 27 30 29 24 24 24 26 23 21 20 19 19 17 19 20 18 18 20 21 19 18 21

GFSSW_sfc_dewp_117.txt.gz
Dewpoint
53 54 55 56 56 57 56 56 57 57 61 62 63 62 61 61 61 54 49 53 51 60 61 52 47 45 42 42 38 38 34 34 33 33 30 34 34 35 38 42 44 48 46 54 61
53 53 54 55 56 56 56 56 56 58 60 61 62 61 61 61 53 51 55 58 59 62 52 52 49 44 43 40 38 41 37 35 34 31 28 32 32 35 36 41 42 48 54 59 61
53 53 54 55 55 56 56 57 56 56 60 60 62 61 61 57 51 50 59 59 60 60 50 53 54 45 45 42 42 40 39 36 29 28 26 31 34 34 35 37 35 42 53 59 61
54 55 54 56 55 55 55 56 58 56 60 60 61 60 60 52 44 46 60 59 61 53 49 52 54 46 45 44 42 41 34 30 31 28 27 27 32 32 34 32 35 36 54 59 59
53 54 55 56 56 55 55 56 57 55 60 60 61 60 55 48 45 46 59 58 51 49 48 50 52 48 45 45 43 44 40 32 35 31 26 27 27 31 32 33 34 40 55 58 58
54 54 54 55 56 55 55 56 57 56 59 60 60 59 48 44 47 47 48 50 48 47 47 50 51 49 47 41 44 44 40 41 37 34 27 26 26 27 27 32 34 45 52 56 58
54 55 54 55 55 56 56 56 56 57 59 60 60 53 46 45 44 47 46 49 48 47 47 50 50 51 46 41 42 38 35 36 37 30 25 26 25 25 26 30 36 43 47 53 57
54 54 54 55 55 56 56 56 56 59 59 60 60 51 45 45 46 46 49 48 52 55 54 54 53 51 48 44 41 38 36 32 33 32 26 28 33 28 26 32 33 38 42 49 53
52 53 53 53 55 54 53 56 56 59 59 60 55 50 42 49 47 47 47 51 53 55 55 53 52 50 48 43 42 42 38 37 36 31 27 29 34 28 25 29 31 34 38 46 49
51 50 53 54 53 54 53 56 56 59 57 57 54 46 44 42 48 45 47 51 51 53 51 50 50 47 47 43 40 39 39 39 38 36 33 34 34 32 25 25 29 29 35 41 47
52 52 51 52 52 52 54 54 49 51 53 48 46 44 43 44 47 44 45 50 51 49 45 46 45 43 45 44 42 41 40 39 39 35 36 36 36 36 36 28 29 27 29 37 41
51 52 52 52 52 52 52 49 49 51 46 50 47 46 43 47 43 44 49 45 47 43 42 42 41 45 46 45 42 41 40 40 39 31 36 39 38 38 38 37 33 29 27 29 37
50 51 52 52 51 51 48 49 54 52 45 47 46 45 45 44 42 44 49 44 45 37 41 42 42 46 45 43 41 41 40 40 40 37 32 34 35 35 37 37 36 33 30 26 29
50 50 51 51 47 48 45 55 54 50 39 39 43 45 46 43 40 45 46 41 40 38 38 40 39 43 41 40 41 37 33 38 28 30 33 33 32 35 36 37 36 36 35 31 27
49 50 51 50 47 44 47 55 54 48 27 38 40 47 46 42 41 41 41 39 36 35 36 34 38 43 40 37 40 33 31 30 29 27 26 27 27 29 30 31 33 36 35 34 29
48 50 51 50 49 48 52 54 51 37 29 32 39 39 42 42 40 40 36 38 38 34 35 33 38 42 40 37 34 33 31 29 27 25 27 30 27 28 30 28 29 31 33 34 29
48 49 49 49 44 50 50 49 35 31 33 29 32 38 39 39 38 38 36 35 33 33 31 32 31 31 38 33 33 33 34 31 30 28 28 20 30 28 31 30 28 28 30 33 32
48 48 48 48 50 50 42 40 30 32 33 35 35 36 34 39 37 37 37 35 35 34 33 30 28 29 36 35 32 33 35 29 27 26 25 19 24 25 25 21 25 26 22 25 29
48 47 46 48 49 46 34 30 32 33 35 35 35 33 32 38 37 36 37 35 35 33 30 30 28 30 31 33 34 33 33 32 22 25 21 22 22 24 26 22 19 24 22 21 22
45 44 42 48 48 39 32 32 34 35 35 36 32 34 31 33 36 35 35 37 35 36 33 32 24 30 29 33 33 33 33 28 29 29 23 22 20 18 23 19 18 19 23 22 23
44 38 43 46 43 34 31 33 34 35 35 33 32 34 32 35 35 34 35 36 35 31 29 32 26 26 29 30 32 31 31 29 29 28 26 23 20 17 13 16 17 18 19 18 20
41 33 43 45 34 33 33 34 37 35 35 32 32 32 33 36 34 34 35 33 35 30 25 27 25 25 28 24 28 31 31 30 27 27 26 24 22 17 17 17 15 16 18 20 24
37 36 43 44 29 32 34 34 37 35 34 32 31 32 33 34 33 34 35 33 32 28 26 25 26 28 26 26 24 27 28 31 28 28 32 27 23 19 17 17 16 17 21 21 27
37 32 34 38 36 33 32 33 34 37 33 30 29 31 31 30 33 32 32 32 32 30 36 31 26 25 22 21 23 23 27 27 28 27 25 26 23 22 18 16 16 16 19 19 21
37 34 34 31 32 35 33 34 34 34 32 30 28 29 28 28 28 27 28 28 31 33 28 25 30 24 19 18 21 22 25 27 28 27 23 22 23 23 21 21 20 19 19 19 19
35 33 35 33 34 33 33 33 34 34 31 28 28 29 28 28 28 27 27 27 28 29 24 25 31 24 29 21 21 22 23 26 26 27 26 23 20 20 19 18 18 19 19 21 21
37 38 37 34 33 33 33 33 35 33 31 28 29 29 28 29 29 29 29 30 29 28 26 28 34 34 31 26 25 28 25 23 25 25 25 23 23 22 18 19 20 21 21 21 22

GFSSW_sfc_dewp_123.txt.gz
Dewpoint
53 54 54 56 57 56 56 56 59 59 60 59 59 60 62 62 62 58 53 55 56 62 60 52 47 44 48 47 49 42 37 37 36 35 34 34 34 37 41 42 47 53 53 56 59
55 55 54 55 57 57 57 56 58 58 59 59 58 57 61 62 58 55 58 61 63 63 56 50 46 42 45 49 50 45 41 37 34 28 28 34 34 36 38 43 48 56 59 58 61
55 55 54 55 56 57 58 57 57 58 59 59 58 57 55 61 55 53 61 63 63 61 56 52 47 43 43 45 49 48 43 38 34 32 28 30 33 36 36 41 46 53 58 59 59
54 54 55 55 56 56 57 57 57 57 58 58 58 58 58 58 47 52 61 62 62 54 51 52 48 46 45 45 45 45 48 40 35 31 29 28 30 34 35 35 39 58 59 59 58
54 53 54 55 55 56 57 57 57 57 58 58 58 57 55 54 51 53 60 61 57 50 48 48 51 47 46 46 48 47 48 37 36 36 28 28 29 32 32 34 48 58 57 57 58
53 54 54 54 55 55 56 57 57 57 57 58 58 56 55 49 53 54 57 56 52 48 47 49 51 52 47 46 47 47 47 41 39 36 27 28 28 28 28 45 56 57 56 57 58
53 53 53 54 55 55 56 56 57 57 57 56 56 52 47 47 55 52 54 52 50 49 47 49 53 50 49 46 45 46 44 40 38 38 29 28 29 26 27 40 54 55 56 57 57
53 53 53 54 54 55 56 56 56 57 57 57 57 53 44 51 54 51 53 51 48 49 50 52 54 51 48 46 42 42 40 40 42 36 30 28 34 37 28 32 47 53 54 57 57
52 53 53 54 54 55 55 56 56 56 56 56 53 49 42 57 55 49 52 49 50 53 53 52 53 50 47 42 40 39 37 38 38 36 28 28 36 36 29 31 34 45 52 56 57
52 52 53 54 54 55 55 56 56 54 53 52 51 46 46 46 54 50 49 50 51 51 50 49 49 47 46 42 37 37 40 35 37 38 30 26 26 31 27 28 30 32 42 51 55
51 53 54 54 54 55 54 52 48 47 48 44 45 42 46 44 54 47 49 50 51 48 44 47 45 42 44 43 42 39 40 38 35 35 32 29 29 29 30 25 26 29 30 43 51
53 53 53 54 54 54 51 46 45 47 43 46 46 44 42 49 49 47 50 47 46 43 46 44 41 43 45 44 43 41 40 39 36 34 32 33 31 33 34 31 26 26 27 29 46
53 53 52 52 52 51 47 44 49 50 41 43 46 42 47 46 47 47 47 47 44 41 43 38 40 44 45 44 43 46 42 40 35 33 35 34 36 35 37 36 38 31 29 28 30
52 52 52 52 48 46 44 47 50 51 34 36 41 41 47 48 45 50 48 46 44 40 41 40 43 44 44 43 44 42 46 46 34 35 35 37 33 34 37 37 38 38 37 29 28
52 53 52 49 45 42 44 49 50 49 22 37 41 44 46 46 46 48 48 44 41 40 43 38 43 42 44 42 45 43 40 38 38 28 31 28 30 30 33 37 38 39 39 37 31
52 51 51 48 47 49 48 49 47 31 23 36 42 43 41 46 45 48 45 42 42 42 39 38 44 44 43 43 45 37 36 38 35 34 32 30 31 31 30 31 36 38 38 39 35
51 51 48 47 42 47 47 42 29 25 35 31 35 42 40 41 43 44 42 40 38 36 37 39 42 41 44 39 39 39 39 32 31 31 30 30 29 33 33 33 32 30 31 38 38
50 49 48 47 45 44 42 32 22 31 30 35 37 41 39 40 40 42 40 38 38 34 35 33 35 41 41 39 36 37 39 33 26 27 27 23 28 29 33 34 32 26 26 27 24
49 43 45 47 44 43 35 25 25 32 34 35 38 37 35 39 39 41 38 37 36 34 31 32 33 37 41 37 39 36 37 32 23 18 23 24 25 26 30 29 26 21 23 22 21
40 39 41 43 43 40 31 27 30 35 35 37 35 37 32 33 36 38 37 37 35 35 34 32 31 35 37 38 38 37 35 30 28 18 18 22 23 23 20 23 24 23 22 24 21
39 33 43 43 42 35 25 28 33 34 36 34 36 36 35 34 36 36 36 36 35 35 33 31 31 30 37 36 35 34 34 32 30 27 22 21 23 25 24 21 20 21 20 25 22
36 28 43 44 31 30 27 31 35 33 36 36 38 38 36 36 35 35 35 34 35 35 30 30 30 30 34 30 34 33 35 31 29 27 26 25 22 24 21 17 19 19 19 21 23
32 34 43 43 25 26 31 32 32 30 31 35 36 38 37 35 33 34 35 35 35 34 30 30 29 28 29 29 30 32 33 31 29 30 26 24 23 21 18 16 16 19 21 23 26
34 29 33 37 35 27 27 28 29 36 35 34 36 39 35 34 34 34 34 35 35 35 37 34 30 27 26 27 31 31 31 32 28 25 26 26 25 18 19 18 16 18 21 22 24
32 29 30 28 30 31 30 32 31 31 36 37 35 38 34 32 33 33 34 35 35 37 32 30 26 26 26 27 30 31 31 32 30 28 25 25 27 25 19 18 17 16 18 18 19
29 32 33 32 32 30 30 28 30 32 34 34 34 37 34 32 34 33 34 34 34 32 32 28 26 23 23 27 28 30 31 32 31 30 27 27 26 28 28 21 19 18 19 18 19
34 34 33 32 31 28 28 29 30 35 37 36 38 37 33 33 35 35 37 36 37 35 32 27 27 24 18 26 27 24 30 31 31 31 29 27 28 27 25 26 21 19 18 19 20